Missouri River (Missouri), Boonville (06909000)

StateMissouriLatestUnknown (47600 cfs)
RiverMissouri RiverRatingObservedEstimated
Updated2026-05-10 9:00 (32 minutes ago)Flood - The river is flooding. Obstacles can be treacherous or deadly. The river should be avoided at this stage for casual trips and definitely for the inexperienced. Trips should be attempted only with protective gear and equipment.Flood(none)(none)
Discharge47600 cfs (median: 87500 cfs)High - The river is high and potentially dangerous, especially for the young and / or inexperienced. Normal stream obstacles are sometimes difficult to navigate. Extended distances can be attempted, but canoe travel may not be advisable.High(none)(none)
Height8.9 feetGood - Conditions are ideal for a canoe or kayak. Boats typically will drag on fewer than one-quarter of riffles, if at all, and portages are unnecessary or rare. Normal float lengths can be attempted without a problem.Good(none)(none)
TrendRising (falling over 24 hours)Low - River is low but can still be floated. Some riffles are okay but most come with significant dragging and might need a portage. Float lengths should be reduced to accommodate low flow, dragging, and portages.Low(none)(none)
USGSExternal icon USGS Site (External icon Duck Duck Go Maps)Poor - River is too low to float comfortably. Most or all riffles will drag or must be portaged and some obstacles (such as slick shelf rock) cause undue problems. Avoid the river at this stage for casual paddling trips.Poor(none)(none)

Trending Data

Plot Image

Trips for Missouri River (Missouri), Boonville (06909000)

DateStartEndDistanceConditionDischargeHeightFishingDetails

A total of 0 rows are displayed.

Condition Descriptions

Fishing Conditions

Fish Species

Notes

Classic Trip List

The classic River Trips application is still available for use. It is updated with the new system using a data retrofit. It is no longer maintained. The original River Trips application is no longer updated (as of 1 Dec 2016) but can be checked for errors or for the condition of the data before it was converted to the new system.

Gauge Data Table

ObservationHeightDischargeMaximum
Discharge
Minimum
Discharge
Mean
Discharge
P05P10P20P25P50
(Median)
P75P80P90P95
2026-05-10 09:00 8.90 47600 330000 (2007) 37400 (1989) 101000 40100 43600 50500 53400 87500 132000 150000 187000 228000
2026-05-10 08:00 8.89 47500 330000 (2007) 37400 (1989) 101000 40100 43600 50500 53400 87500 132000 150000 187000 228000
2026-05-10 07:00 8.89 47500 330000 (2007) 37400 (1989) 101000 40100 43600 50500 53400 87500 132000 150000 187000 228000
2026-05-10 06:00 8.96 47900 330000 (2007) 37400 (1989) 101000 40100 43600 50500 53400 87500 132000 150000 187000 228000
2026-05-10 05:00 8.98 48000 330000 (2007) 37400 (1989) 101000 40100 43600 50500 53400 87500 132000 150000 187000 228000
2026-05-10 04:00 9.01 48200 330000 (2007) 37400 (1989) 101000 40100 43600 50500 53400 87500 132000 150000 187000 228000
2026-05-10 03:00 8.96 47900 330000 (2007) 37400 (1989) 101000 40100 43600 50500 53400 87500 132000 150000 187000 228000
2026-05-10 02:00 9.03 48300 330000 (2007) 37400 (1989) 101000 40100 43600 50500 53400 87500 132000 150000 187000 228000
2026-05-10 01:00 9.05 48400 330000 (2007) 37400 (1989) 101000 40100 43600 50500 53400 87500 132000 150000 187000 228000
2026-05-10 00:00 9.06 48500 330000 (2007) 37400 (1989) 101000 40100 43600 50500 53400 87500 132000 150000 187000 228000
2026-05-09 23:00 9.07 48500 330000 (2007) 37400 (1989) 101000 40100 43600 50500 53400 87500 132000 150000 187000 228000
2026-05-09 22:00 9.08 48600 303000 (2007) 37800 (1989) 100000 40200 42800 47800 50900 88400 138000 145000 188000 204000
2026-05-09 21:00 9.07 48500 303000 (2007) 37800 (1989) 100000 40200 42800 47800 50900 88400 138000 145000 188000 204000
2026-05-09 20:00 9.08 48600 303000 (2007) 37800 (1989) 100000 40200 42800 47800 50900 88400 138000 145000 188000 204000
2026-05-09 19:00 9.10 48700 303000 (2007) 37800 (1989) 100000 40200 42800 47800 50900 88400 138000 145000 188000 204000
2026-05-09 18:00 9.09 48700 303000 (2007) 37800 (1989) 100000 40200 42800 47800 50900 88400 138000 145000 188000 204000
2026-05-09 17:00 9.16 49000 303000 (2007) 37800 (1989) 100000 40200 42800 47800 50900 88400 138000 145000 188000 204000
2026-05-09 16:00 9.15 49000 303000 (2007) 37800 (1989) 100000 40200 42800 47800 50900 88400 138000 145000 188000 204000
2026-05-09 15:00 9.17 49100 303000 (2007) 37800 (1989) 100000 40200 42800 47800 50900 88400 138000 145000 188000 204000
2026-05-09 14:00 9.19 49200 303000 (2007) 37800 (1989) 100000 40200 42800 47800 50900 88400 138000 145000 188000 204000
2026-05-09 13:00 9.19 49200 303000 (2007) 37800 (1989) 100000 40200 42800 47800 50900 88400 138000 145000 188000 204000
2026-05-09 12:00 9.19 49200 303000 (2007) 37800 (1989) 100000 40200 42800 47800 50900 88400 138000 145000 188000 204000
2026-05-09 11:00 9.20 49300 303000 (2007) 37800 (1989) 100000 40200 42800 47800 50900 88400 138000 145000 188000 204000
2026-05-09 10:00 9.22 49400 303000 (2007) 37800 (1989) 100000 40200 42800 47800 50900 88400 138000 145000 188000 204000
2026-05-09 09:00 9.23 49400 303000 (2007) 37800 (1989) 100000 40200 42800 47800 50900 88400 138000 145000 188000 204000
2026-05-09 08:00 9.24 49500 303000 (2007) 37800 (1989) 100000 40200 42800 47800 50900 88400 138000 145000 188000 204000
2026-05-09 07:00 9.26 49600 303000 (2007) 37800 (1989) 100000 40200 42800 47800 50900 88400 138000 145000 188000 204000
2026-05-09 06:00 9.27 49700 303000 (2007) 37800 (1989) 100000 40200 42800 47800 50900 88400 138000 145000 188000 204000
2026-05-09 05:00 9.28 49700 303000 (2007) 37800 (1989) 100000 40200 42800 47800 50900 88400 138000 145000 188000 204000
2026-05-09 04:00 9.30 49800 303000 (2007) 37800 (1989) 100000 40200 42800 47800 50900 88400 138000 145000 188000 204000
2026-05-09 03:00 9.32 50000 303000 (2007) 37800 (1989) 100000 40200 42800 47800 50900 88400 138000 145000 188000 204000
2026-05-09 02:00 9.34 50100 303000 (2007) 37800 (1989) 100000 40200 42800 47800 50900 88400 138000 145000 188000 204000
2026-05-09 01:00 9.36 50200 303000 (2007) 37800 (1989) 100000 40200 42800 47800 50900 88400 138000 145000 188000 204000
2026-05-09 00:00 9.38 50300 303000 (2007) 37800 (1989) 100000 40200 42800 47800 50900 88400 138000 145000 188000 204000
2026-05-08 23:00 9.40 50400 303000 (2007) 37800 (1989) 100000 40200 42800 47800 50900 88400 138000 145000 188000 204000
2026-05-08 22:00 9.43 50600 245000 (2007) 38200 (1989) 96600 39600 42500 49300 54500 92200 130000 141000 166000 181000
2026-05-08 21:00 9.46 50800 245000 (2007) 38200 (1989) 96600 39600 42500 49300 54500 92200 130000 141000 166000 181000
2026-05-08 20:00 9.48 50900 245000 (2007) 38200 (1989) 96600 39600 42500 49300 54500 92200 130000 141000 166000 181000
2026-05-08 19:00 9.51 51100 245000 (2007) 38200 (1989) 96600 39600 42500 49300 54500 92200 130000 141000 166000 181000
2026-05-08 18:00 9.54 51200 245000 (2007) 38200 (1989) 96600 39600 42500 49300 54500 92200 130000 141000 166000 181000
2026-05-08 17:00 9.56 51400 245000 (2007) 38200 (1989) 96600 39600 42500 49300 54500 92200 130000 141000 166000 181000
2026-05-08 16:00 9.58 51500 245000 (2007) 38200 (1989) 96600 39600 42500 49300 54500 92200 130000 141000 166000 181000
2026-05-08 15:00 9.60 51600 245000 (2007) 38200 (1989) 96600 39600 42500 49300 54500 92200 130000 141000 166000 181000
2026-05-08 14:00 9.62 51700 245000 (2007) 38200 (1989) 96600 39600 42500 49300 54500 92200 130000 141000 166000 181000
2026-05-08 13:00 9.65 51900 245000 (2007) 38200 (1989) 96600 39600 42500 49300 54500 92200 130000 141000 166000 181000
2026-05-08 12:00 9.68 52100 245000 (2007) 38200 (1989) 96600 39600 42500 49300 54500 92200 130000 141000 166000 181000
2026-05-08 11:00 9.72 52300 245000 (2007) 38200 (1989) 96600 39600 42500 49300 54500 92200 130000 141000 166000 181000
2026-05-08 10:00 9.75 52500 245000 (2007) 38200 (1989) 96600 39600 42500 49300 54500 92200 130000 141000 166000 181000
2026-05-08 09:00 9.77 52600 245000 (2007) 38200 (1989) 96600 39600 42500 49300 54500 92200 130000 141000 166000 181000
2026-05-08 08:00 9.82 52900 245000 (2007) 38200 (1989) 96600 39600 42500 49300 54500 92200 130000 141000 166000 181000
2026-05-08 07:00 9.84 53000 245000 (2007) 38200 (1989) 96600 39600 42500 49300 54500 92200 130000 141000 166000 181000
2026-05-08 06:00 9.87 53200 245000 (2007) 38200 (1989) 96600 39600 42500 49300 54500 92200 130000 141000 166000 181000
2026-05-08 05:00 9.89 53300 245000 (2007) 38200 (1989) 96600 39600 42500 49300 54500 92200 130000 141000 166000 181000
2026-05-08 04:00 9.93 53600 245000 (2007) 38200 (1989) 96600 39600 42500 49300 54500 92200 130000 141000 166000 181000
2026-05-08 03:00 9.97 53800 245000 (2007) 38200 (1989) 96600 39600 42500 49300 54500 92200 130000 141000 166000 181000
2026-05-08 02:00 10.02 54100 245000 (2007) 38200 (1989) 96600 39600 42500 49300 54500 92200 130000 141000 166000 181000
2026-05-08 01:00 10.04 54200 245000 (2007) 38200 (1989) 96600 39600 42500 49300 54500 92200 130000 141000 166000 181000
2026-05-08 00:00 10.07 54400 245000 (2007) 38200 (1989) 96600 39600 42500 49300 54500 92200 130000 141000 166000 181000
2026-05-07 23:00 10.10 54600 245000 (2007) 38200 (1989) 96600 39600 42500 49300 54500 92200 130000 141000 166000 181000
2026-05-07 22:00 10.13 54800 230000 (1999) 38400 (1989) 90100 39900 43400 49500 54200 84700 116000 131000 146000 164000
2026-05-07 21:00 10.15 54900 230000 (1999) 38400 (1989) 90100 39900 43400 49500 54200 84700 116000 131000 146000 164000
2026-05-07 20:00 10.16 55000 230000 (1999) 38400 (1989) 90100 39900 43400 49500 54200 84700 116000 131000 146000 164000
2026-05-07 19:00 10.19 55200 230000 (1999) 38400 (1989) 90100 39900 43400 49500 54200 84700 116000 131000 146000 164000
2026-05-07 18:00 10.15 54900 230000 (1999) 38400 (1989) 90100 39900 43400 49500 54200 84700 116000 131000 146000 164000
2026-05-07 17:00 10.15 54900 230000 (1999) 38400 (1989) 90100 39900 43400 49500 54200 84700 116000 131000 146000 164000
2026-05-07 16:00 10.19 55200 230000 (1999) 38400 (1989) 90100 39900 43400 49500 54200 84700 116000 131000 146000 164000
2026-05-07 15:00 10.20 55200 230000 (1999) 38400 (1989) 90100 39900 43400 49500 54200 84700 116000 131000 146000 164000
2026-05-07 14:00 10.22 55400 230000 (1999) 38400 (1989) 90100 39900 43400 49500 54200 84700 116000 131000 146000 164000
2026-05-07 13:00 10.22 55400 230000 (1999) 38400 (1989) 90100 39900 43400 49500 54200 84700 116000 131000 146000 164000
2026-05-07 12:00 10.22 55400 230000 (1999) 38400 (1989) 90100 39900 43400 49500 54200 84700 116000 131000 146000 164000
2026-05-07 11:00 10.28 55700 230000 (1999) 38400 (1989) 90100 39900 43400 49500 54200 84700 116000 131000 146000 164000
2026-05-07 10:00 10.32 56000 230000 (1999) 38400 (1989) 90100 39900 43400 49500 54200 84700 116000 131000 146000 164000
2026-05-07 09:00 10.35 56200 230000 (1999) 38400 (1989) 90100 39900 43400 49500 54200 84700 116000 131000 146000 164000
2026-05-07 08:00 10.36 56300 230000 (1999) 38400 (1989) 90100 39900 43400 49500 54200 84700 116000 131000 146000 164000
2026-05-07 07:00 10.36 56300 230000 (1999) 38400 (1989) 90100 39900 43400 49500 54200 84700 116000 131000 146000 164000
2026-05-07 06:00 10.38 56400 230000 (1999) 38400 (1989) 90100 39900 43400 49500 54200 84700 116000 131000 146000 164000
2026-05-07 05:00 10.37 56300 230000 (1999) 38400 (1989) 90100 39900 43400 49500 54200 84700 116000 131000 146000 164000
2026-05-07 04:00 10.37 56300 230000 (1999) 38400 (1989) 90100 39900 43400 49500 54200 84700 116000 131000 146000 164000
2026-05-07 03:00 10.38 56400 230000 (1999) 38400 (1989) 90100 39900 43400 49500 54200 84700 116000 131000 146000 164000
2026-05-07 02:00 10.37 56300 230000 (1999) 38400 (1989) 90100 39900 43400 49500 54200 84700 116000 131000 146000 164000
2026-05-07 01:00 10.37 56300 230000 (1999) 38400 (1989) 90100 39900 43400 49500 54200 84700 116000 131000 146000 164000
2026-05-07 00:00 10.35 56200 230000 (1999) 38400 (1989) 90100 39900 43400 49500 54200 84700 116000 131000 146000 164000
2026-05-06 23:00 10.35 56200 230000 (1999) 38400 (1989) 90100 39900 43400 49500 54200 84700 116000 131000 146000 164000
2026-05-06 22:00 10.35 56200 242000 (1999) 38800 (1989) 88000 41300 43300 48300 50800 81500 110000 122000 156000 176000
2026-05-06 21:00 10.34 56100 242000 (1999) 38800 (1989) 88000 41300 43300 48300 50800 81500 110000 122000 156000 176000
2026-05-06 20:00 10.30 55900 242000 (1999) 38800 (1989) 88000 41300 43300 48300 50800 81500 110000 122000 156000 176000
2026-05-06 19:00 10.29 55800 242000 (1999) 38800 (1989) 88000 41300 43300 48300 50800 81500 110000 122000 156000 176000
2026-05-06 18:00 10.29 55800 242000 (1999) 38800 (1989) 88000 41300 43300 48300 50800 81500 110000 122000 156000 176000
2026-05-06 17:00 10.28 55700 242000 (1999) 38800 (1989) 88000 41300 43300 48300 50800 81500 110000 122000 156000 176000
2026-05-06 16:00 10.25 55600 242000 (1999) 38800 (1989) 88000 41300 43300 48300 50800 81500 110000 122000 156000 176000
2026-05-06 15:00 10.24 55500 242000 (1999) 38800 (1989) 88000 41300 43300 48300 50800 81500 110000 122000 156000 176000
2026-05-06 14:00 10.22 55400 242000 (1999) 38800 (1989) 88000 41300 43300 48300 50800 81500 110000 122000 156000 176000
2026-05-06 13:00 10.20 63000 242000 (1999) 38800 (1989) 88000 41300 43300 48300 50800 81500 110000 122000 156000 176000
2026-05-06 12:00 10.17 62800 242000 (1999) 38800 (1989) 88000 41300 43300 48300 50800 81500 110000 122000 156000 176000
2026-05-06 11:00 10.14 62600 242000 (1999) 38800 (1989) 88000 41300 43300 48300 50800 81500 110000 122000 156000 176000
2026-05-06 10:00 10.13 62500 242000 (1999) 38800 (1989) 88000 41300 43300 48300 50800 81500 110000 122000 156000 176000
2026-05-06 09:00 62400 242000 (1999) 38800 (1989) 88000 41300 43300 48300 50800 81500 110000 122000 156000 176000
2026-05-06 08:00 10.11 62300 242000 (1999) 38800 (1989) 88000 41300 43300 48300 50800 81500 110000 122000 156000 176000
2026-05-06 07:00 10.11 62300 242000 (1999) 38800 (1989) 88000 41300 43300 48300 50800 81500 110000 122000 156000 176000
2026-05-06 06:00 10.08 62100 242000 (1999) 38800 (1989) 88000 41300 43300 48300 50800 81500 110000 122000 156000 176000
2026-05-06 05:00 10.07 62100 242000 (1999) 38800 (1989) 88000 41300 43300 48300 50800 81500 110000 122000 156000 176000
2026-05-06 04:00 10.06 62000 242000 (1999) 38800 (1989) 88000 41300 43300 48300 50800 81500 110000 122000 156000 176000
2026-05-06 03:00 10.05 61900 242000 (1999) 38800 (1989) 88000 41300 43300 48300 50800 81500 110000 122000 156000 176000
2026-05-06 02:00 10.06 62000 242000 (1999) 38800 (1989) 88000 41300 43300 48300 50800 81500 110000 122000 156000 176000
2026-05-06 01:00 10.04 61900 242000 (1999) 38800 (1989) 88000 41300 43300 48300 50800 81500 110000 122000 156000 176000
2026-05-06 00:00 10.05 61900 242000 (1999) 38800 (1989) 88000 41300 43300 48300 50800 81500 110000 122000 156000 176000
2026-05-05 23:00 10.03 61800 242000 (1999) 38800 (1989) 88000 41300 43300 48300 50800 81500 110000 122000 156000 176000
2026-05-05 22:00 10.03 61800 220000 (2019) 39200 (1989) 88900 41400 43900 47700 49400 82800 102000 120000 167000 188000
2026-05-05 21:00 10.03 61800 220000 (2019) 39200 (1989) 88900 41400 43900 47700 49400 82800 102000 120000 167000 188000
2026-05-05 20:00 10.03 61800 220000 (2019) 39200 (1989) 88900 41400 43900 47700 49400 82800 102000 120000 167000 188000
2026-05-05 19:00 10.04 61900 220000 (2019) 39200 (1989) 88900 41400 43900 47700 49400 82800 102000 120000 167000 188000
2026-05-05 18:00 10.05 61900 220000 (2019) 39200 (1989) 88900 41400 43900 47700 49400 82800 102000 120000 167000 188000
2026-05-05 17:00 10.04 61900 220000 (2019) 39200 (1989) 88900 41400 43900 47700 49400 82800 102000 120000 167000 188000
2026-05-05 16:00 9.99 61500 220000 (2019) 39200 (1989) 88900 41400 43900 47700 49400 82800 102000 120000 167000 188000
2026-05-05 15:00 10.06 62000 220000 (2019) 39200 (1989) 88900 41400 43900 47700 49400 82800 102000 120000 167000 188000
2026-05-05 14:00 10.04 61900 220000 (2019) 39200 (1989) 88900 41400 43900 47700 49400 82800 102000 120000 167000 188000
2026-05-05 13:00 10.09 62200 220000 (2019) 39200 (1989) 88900 41400 43900 47700 49400 82800 102000 120000 167000 188000
2026-05-05 12:00 10.09 62200 220000 (2019) 39200 (1989) 88900 41400 43900 47700 49400 82800 102000 120000 167000 188000
2026-05-05 11:00 10.12 62400 220000 (2019) 39200 (1989) 88900 41400 43900 47700 49400 82800 102000 120000 167000 188000
2026-05-05 10:00 10.13 62500 220000 (2019) 39200 (1989) 88900 41400 43900 47700 49400 82800 102000 120000 167000 188000
2026-05-05 09:00 10.14 62600 220000 (2019) 39200 (1989) 88900 41400 43900 47700 49400 82800 102000 120000 167000 188000
2026-05-05 08:00 10.18 62800 220000 (2019) 39200 (1989) 88900 41400 43900 47700 49400 82800 102000 120000 167000 188000
2026-05-05 07:00 10.20 63000 220000 (2019) 39200 (1989) 88900 41400 43900 47700 49400 82800 102000 120000 167000 188000
2026-05-05 06:00 10.17 62800 220000 (2019) 39200 (1989) 88900 41400 43900 47700 49400 82800 102000 120000 167000 188000
2026-05-05 05:00 10.25 63300 220000 (2019) 39200 (1989) 88900 41400 43900 47700 49400 82800 102000 120000 167000 188000
2026-05-05 04:00 10.26 63400 220000 (2019) 39200 (1989) 88900 41400 43900 47700 49400 82800 102000 120000 167000 188000
2026-05-05 03:00 10.24 63300 220000 (2019) 39200 (1989) 88900 41400 43900 47700 49400 82800 102000 120000 167000 188000
2026-05-05 02:00 10.22 63100 220000 (2019) 39200 (1989) 88900 41400 43900 47700 49400 82800 102000 120000 167000 188000
2026-05-05 01:00 10.25 63300 220000 (2019) 39200 (1989) 88900 41400 43900 47700 49400 82800 102000 120000 167000 188000
2026-05-05 00:00 10.34 64000 220000 (2019) 39200 (1989) 88900 41400 43900 47700 49400 82800 102000 120000 167000 188000
2026-05-04 23:00 10.36 64100 220000 (2019) 39200 (1989) 88900 41400 43900 47700 49400 82800 102000 120000 167000 188000
2026-05-04 22:00 10.38 64200 262000 (2019) 39500 (1989) 89600 41200 44500 47000 49500 74800 109000 126000 172000 177000
2026-05-04 21:00 10.40 64400 262000 (2019) 39500 (1989) 89600 41200 44500 47000 49500 74800 109000 126000 172000 177000
2026-05-04 20:00 10.44 64700 262000 (2019) 39500 (1989) 89600 41200 44500 47000 49500 74800 109000 126000 172000 177000
2026-05-04 19:00 10.47 64900 262000 (2019) 39500 (1989) 89600 41200 44500 47000 49500 74800 109000 126000 172000 177000
2026-05-04 18:00 10.44 64700 262000 (2019) 39500 (1989) 89600 41200 44500 47000 49500 74800 109000 126000 172000 177000
2026-05-04 17:00 10.45 64700 262000 (2019) 39500 (1989) 89600 41200 44500 47000 49500 74800 109000 126000 172000 177000
2026-05-04 16:00 10.50 65100 262000 (2019) 39500 (1989) 89600 41200 44500 47000 49500 74800 109000 126000 172000 177000
2026-05-04 15:00 10.51 65200 262000 (2019) 39500 (1989) 89600 41200 44500 47000 49500 74800 109000 126000 172000 177000
2026-05-04 14:00 10.56 65500 262000 (2019) 39500 (1989) 89600 41200 44500 47000 49500 74800 109000 126000 172000 177000
2026-05-04 13:00 10.59 65700 262000 (2019) 39500 (1989) 89600 41200 44500 47000 49500 74800 109000 126000 172000 177000
2026-05-04 12:00 10.63 66000 262000 (2019) 39500 (1989) 89600 41200 44500 47000 49500 74800 109000 126000 172000 177000
2026-05-04 11:00 10.72 66700 262000 (2019) 39500 (1989) 89600 41200 44500 47000 49500 74800 109000 126000 172000 177000
2026-05-04 10:00 10.75 66900 262000 (2019) 39500 (1989) 89600 41200 44500 47000 49500 74800 109000 126000 172000 177000
2026-05-04 09:00 10.80 67300 262000 (2019) 39500 (1989) 89600 41200 44500 47000 49500 74800 109000 126000 172000 177000
2026-05-04 08:00 10.82 67400 262000 (2019) 39500 (1989) 89600 41200 44500 47000 49500 74800 109000 126000 172000 177000
2026-05-04 07:00 10.85 67700 262000 (2019) 39500 (1989) 89600 41200 44500 47000 49500 74800 109000 126000 172000 177000
2026-05-04 06:00 10.88 67900 262000 (2019) 39500 (1989) 89600 41200 44500 47000 49500 74800 109000 126000 172000 177000
2026-05-04 05:00 10.91 68100 262000 (2019) 39500 (1989) 89600 41200 44500 47000 49500 74800 109000 126000 172000 177000
2026-05-04 04:00 10.95 68400 262000 (2019) 39500 (1989) 89600 41200 44500 47000 49500 74800 109000 126000 172000 177000
2026-05-04 03:00 10.99 68700 262000 (2019) 39500 (1989) 89600 41200 44500 47000 49500 74800 109000 126000 172000 177000
2026-05-04 02:00 11.00 68800 262000 (2019) 39500 (1989) 89600 41200 44500 47000 49500 74800 109000 126000 172000 177000
2026-05-04 01:00 11.04 69100 262000 (2019) 39500 (1989) 89600 41200 44500 47000 49500 74800 109000 126000 172000 177000
2026-05-04 00:00 11.08 69400 262000 (2019) 39500 (1989) 89600 41200 44500 47000 49500 74800 109000 126000 172000 177000
2026-05-03 23:00 11.12 69700 262000 (2019) 39500 (1989) 89600 41200 44500 47000 49500 74800 109000 126000 172000 177000
2026-05-03 22:00 11.17 70100 278000 (2019) 40800 (2023) 91400 41400 44700 48700 49600 80000 110000 115000 170000 217000
2026-05-03 21:00 11.21 70400 278000 (2019) 40800 (2023) 91400 41400 44700 48700 49600 80000 110000 115000 170000 217000
2026-05-03 20:00 11.24 70600 278000 (2019) 40800 (2023) 91400 41400 44700 48700 49600 80000 110000 115000 170000 217000
2026-05-03 19:00 11.26 70700 278000 (2019) 40800 (2023) 91400 41400 44700 48700 49600 80000 110000 115000 170000 217000
2026-05-03 18:00 11.28 70900 278000 (2019) 40800 (2023) 91400 41400 44700 48700 49600 80000 110000 115000 170000 217000
2026-05-03 17:00 11.34 71400 278000 (2019) 40800 (2023) 91400 41400 44700 48700 49600 80000 110000 115000 170000 217000
2026-05-03 16:00 11.34 71400 278000 (2019) 40800 (2023) 91400 41400 44700 48700 49600 80000 110000 115000 170000 217000
2026-05-03 15:00 11.39 71700 278000 (2019) 40800 (2023) 91400 41400 44700 48700 49600 80000 110000 115000 170000 217000
2026-05-03 14:00 11.46 72300 278000 (2019) 40800 (2023) 91400 41400 44700 48700 49600 80000 110000 115000 170000 217000
2026-05-03 13:00 11.53 72800 278000 (2019) 40800 (2023) 91400 41400 44700 48700 49600 80000 110000 115000 170000 217000
2026-05-03 12:00 11.61 73500 278000 (2019) 40800 (2023) 91400 41400 44700 48700 49600 80000 110000 115000 170000 217000
2026-05-03 11:00 11.73 74400 278000 (2019) 40800 (2023) 91400 41400 44700 48700 49600 80000 110000 115000 170000 217000
2026-05-03 10:00 11.78 74800 278000 (2019) 40800 (2023) 91400 41400 44700 48700 49600 80000 110000 115000 170000 217000
2026-05-03 09:00 11.86 75500 278000 (2019) 40800 (2023) 91400 41400 44700 48700 49600 80000 110000 115000 170000 217000
2026-05-03 08:00 11.94 76100 278000 (2019) 40800 (2023) 91400 41400 44700 48700 49600 80000 110000 115000 170000 217000
2026-05-03 07:00 12.03 76800 278000 (2019) 40800 (2023) 91400 41400 44700 48700 49600 80000 110000 115000 170000 217000
2026-05-03 06:00 12.09 77300 278000 (2019) 40800 (2023) 91400 41400 44700 48700 49600 80000 110000 115000 170000 217000
2026-05-03 05:00 12.16 77900 278000 (2019) 40800 (2023) 91400 41400 44700 48700 49600 80000 110000 115000 170000 217000
2026-05-03 04:00 12.24 78600 278000 (2019) 40800 (2023) 91400 41400 44700 48700 49600 80000 110000 115000 170000 217000
2026-05-03 03:00 12.32 79200 278000 (2019) 40800 (2023) 91400 41400 44700 48700 49600 80000 110000 115000 170000 217000
2026-05-03 02:00 12.41 80000 278000 (2019) 40800 (2023) 91400 41400 44700 48700 49600 80000 110000 115000 170000 217000
2026-05-03 01:00 12.49 80700 278000 (2019) 40800 (2023) 91400 41400 44700 48700 49600 80000 110000 115000 170000 217000
2026-05-03 00:00 12.56 81300 278000 (2019) 40800 (2023) 91400 41400 44700 48700 49600 80000 110000 115000 170000 217000
2026-05-02 23:00 12.64 82000 278000 (2019) 40800 (2023) 91400 41400 44700 48700 49600 80000 110000 115000 170000 217000
2026-05-02 22:00 12.71 82600 268000 (2019) 40600 (1981) 94200 42100 44300 48500 50500 86500 113000 124000 178000 226000
2026-05-02 21:00 12.78 83200 268000 (2019) 40600 (1981) 94200 42100 44300 48500 50500 86500 113000 124000 178000 226000
2026-05-02 20:00 12.84 83800 268000 (2019) 40600 (1981) 94200 42100 44300 48500 50500 86500 113000 124000 178000 226000
2026-05-02 19:00 12.91 84400 268000 (2019) 40600 (1981) 94200 42100 44300 48500 50500 86500 113000 124000 178000 226000
2026-05-02 18:00 12.97 84900 268000 (2019) 40600 (1981) 94200 42100 44300 48500 50500 86500 113000 124000 178000 226000
2026-05-02 17:00 13.03 85500 268000 (2019) 40600 (1981) 94200 42100 44300 48500 50500 86500 113000 124000 178000 226000
2026-05-02 16:00 13.10 86100 268000 (2019) 40600 (1981) 94200 42100 44300 48500 50500 86500 113000 124000 178000 226000
2026-05-02 15:00 13.17 86800 268000 (2019) 40600 (1981) 94200 42100 44300 48500 50500 86500 113000 124000 178000 226000
2026-05-02 14:00 13.24 87500 268000 (2019) 40600 (1981) 94200 42100 44300 48500 50500 86500 113000 124000 178000 226000
2026-05-02 13:00 13.31 88100 268000 (2019) 40600 (1981) 94200 42100 44300 48500 50500 86500 113000 124000 178000 226000
2026-05-02 12:00 13.37 88700 268000 (2019) 40600 (1981) 94200 42100 44300 48500 50500 86500 113000 124000 178000 226000
2026-05-02 11:00 13.46 89500 268000 (2019) 40600 (1981) 94200 42100 44300 48500 50500 86500 113000 124000 178000 226000
2026-05-02 10:00 13.54 90300 268000 (2019) 40600 (1981) 94200 42100 44300 48500 50500 86500 113000 124000 178000 226000
2026-05-02 09:00 13.61 91000 268000 (2019) 40600 (1981) 94200 42100 44300 48500 50500 86500 113000 124000 178000 226000
2026-05-02 08:00 13.67 91600 268000 (2019) 40600 (1981) 94200 42100 44300 48500 50500 86500 113000 124000 178000 226000
2026-05-02 07:00 13.73 92100 268000 (2019) 40600 (1981) 94200 42100 44300 48500 50500 86500 113000 124000 178000 226000
2026-05-02 06:00 13.86 93400 268000 (2019) 40600 (1981) 94200 42100 44300 48500 50500 86500 113000 124000 178000 226000
2026-05-02 05:00 13.96 94400 268000 (2019) 40600 (1981) 94200 42100 44300 48500 50500 86500 113000 124000 178000 226000
2026-05-02 04:00 14.05 95300 268000 (2019) 40600 (1981) 94200 42100 44300 48500 50500 86500 113000 124000 178000 226000
2026-05-02 03:00 14.15 96300 268000 (2019) 40600 (1981) 94200 42100 44300 48500 50500 86500 113000 124000 178000 226000
2026-05-02 02:00 14.22 97000 268000 (2019) 40600 (1981) 94200 42100 44300 48500 50500 86500 113000 124000 178000 226000
2026-05-02 01:00 14.30 97800 268000 (2019) 40600 (1981) 94200 42100 44300 48500 50500 86500 113000 124000 178000 226000
2026-05-02 00:00 14.39 98700 268000 (2019) 40600 (1981) 94200 42100 44300 48500 50500 86500 113000 124000 178000 226000
2026-05-01 23:00 14.49 99700 268000 (2019) 40600 (1981) 94200 42100 44300 48500 50500 86500 113000 124000 178000 226000
2026-05-01 22:00 14.59 101000 269000 (2009) 39200 (1989) 94900 42700 43900 49100 52900 85200 116000 121000 195000 218000
2026-05-01 21:00 14.67 101000 269000 (2009) 39200 (1989) 94900 42700 43900 49100 52900 85200 116000 121000 195000 218000
2026-05-01 20:00 14.74 102000 269000 (2009) 39200 (1989) 94900 42700 43900 49100 52900 85200 116000 121000 195000 218000
2026-05-01 19:00 14.90 104000 269000 (2009) 39200 (1989) 94900 42700 43900 49100 52900 85200 116000 121000 195000 218000
2026-05-01 18:00 15.00 105000 269000 (2009) 39200 (1989) 94900 42700 43900 49100 52900 85200 116000 121000 195000 218000
2026-05-01 17:00 15.09 106000 269000 (2009) 39200 (1989) 94900 42700 43900 49100 52900 85200 116000 121000 195000 218000
2026-05-01 16:00 15.21 107000 269000 (2009) 39200 (1989) 94900 42700 43900 49100 52900 85200 116000 121000 195000 218000
2026-05-01 15:00 15.32 108000 269000 (2009) 39200 (1989) 94900 42700 43900 49100 52900 85200 116000 121000 195000 218000
2026-05-01 14:00 15.42 109000 269000 (2009) 39200 (1989) 94900 42700 43900 49100 52900 85200 116000 121000 195000 218000
2026-05-01 13:00 15.59 111000 269000 (2009) 39200 (1989) 94900 42700 43900 49100 52900 85200 116000 121000 195000 218000
2026-05-01 12:00 15.68 112000 269000 (2009) 39200 (1989) 94900 42700 43900 49100 52900 85200 116000 121000 195000 218000
2026-05-01 11:00 15.85 114000 269000 (2009) 39200 (1989) 94900 42700 43900 49100 52900 85200 116000 121000 195000 218000
2026-05-01 10:00 16.00 115000 269000 (2009) 39200 (1989) 94900 42700 43900 49100 52900 85200 116000 121000 195000 218000
2026-05-01 09:00 16.12 116000 269000 (2009) 39200 (1989) 94900 42700 43900 49100 52900 85200 116000 121000 195000 218000
2026-05-01 08:00 16.26 118000 269000 (2009) 39200 (1989) 94900 42700 43900 49100 52900 85200 116000 121000 195000 218000
2026-05-01 07:00 16.41 119000 269000 (2009) 39200 (1989) 94900 42700 43900 49100 52900 85200 116000 121000 195000 218000
2026-05-01 06:00 16.55 121000 269000 (2009) 39200 (1989) 94900 42700 43900 49100 52900 85200 116000 121000 195000 218000
2026-05-01 05:00 16.72 122000 269000 (2009) 39200 (1989) 94900 42700 43900 49100 52900 85200 116000 121000 195000 218000
2026-05-01 04:00 16.87 124000 269000 (2009) 39200 (1989) 94900 42700 43900 49100 52900 85200 116000 121000 195000 218000
2026-05-01 03:00 17.01 126000 269000 (2009) 39200 (1989) 94900 42700 43900 49100 52900 85200 116000 121000 195000 218000
2026-05-01 02:00 17.16 127000 269000 (2009) 39200 (1989) 94900 42700 43900 49100 52900 85200 116000 121000 195000 218000
2026-05-01 01:00 17.34 129000 269000 (2009) 39200 (1989) 94900 42700 43900 49100 52900 85200 116000 121000 195000 218000
2026-05-01 00:00 17.53 131000 269000 (2009) 39200 (1989) 94900 42700 43900 49100 52900 85200 116000 121000 195000 218000
2026-04-30 23:00 17.71 133000 269000 (2009) 39200 (1989) 94900 42700 43900 49100 52900 85200 116000 121000 195000 218000
2026-04-30 22:00 17.88 135000 269000 (2009) 37800 (1989) 93600 42400 43400 49700 53300 78100 125000 130000 183000 212000
2026-04-30 21:00 18.07 137000 269000 (2009) 37800 (1989) 93600 42400 43400 49700 53300 78100 125000 130000 183000 212000
2026-04-30 20:00 18.22 138000 269000 (2009) 37800 (1989) 93600 42400 43400 49700 53300 78100 125000 130000 183000 212000
2026-04-30 19:00 18.41 140000 269000 (2009) 37800 (1989) 93600 42400 43400 49700 53300 78100 125000 130000 183000 212000
2026-04-30 18:00 18.57 142000 269000 (2009) 37800 (1989) 93600 42400 43400 49700 53300 78100 125000 130000 183000 212000
2026-04-30 17:00 18.76 144000 269000 (2009) 37800 (1989) 93600 42400 43400 49700 53300 78100 125000 130000 183000 212000
2026-04-30 16:00 18.95 146000 269000 (2009) 37800 (1989) 93600 42400 43400 49700 53300 78100 125000 130000 183000 212000
2026-04-30 15:00 19.10 148000 269000 (2009) 37800 (1989) 93600 42400 43400 49700 53300 78100 125000 130000 183000 212000
2026-04-30 14:00 19.32 150000 269000 (2009) 37800 (1989) 93600 42400 43400 49700 53300 78100 125000 130000 183000 212000
2026-04-30 13:00 19.50 152000 269000 (2009) 37800 (1989) 93600 42400 43400 49700 53300 78100 125000 130000 183000 212000
2026-04-30 12:00 19.74 154000 269000 (2009) 37800 (1989) 93600 42400 43400 49700 53300 78100 125000 130000 183000 212000
2026-04-30 11:00 19.94 156000 269000 (2009) 37800 (1989) 93600 42400 43400 49700 53300 78100 125000 130000 183000 212000
2026-04-30 10:00 20.11 158000 269000 (2009) 37800 (1989) 93600 42400 43400 49700 53300 78100 125000 130000 183000 212000
2026-04-30 09:00 20.29 160000 269000 (2009) 37800 (1989) 93600 42400 43400 49700 53300 78100 125000 130000 183000 212000
2026-04-30 08:00 20.48 162000 269000 (2009) 37800 (1989) 93600 42400 43400 49700 53300 78100 125000 130000 183000 212000
2026-04-30 07:00 20.64 164000 269000 (2009) 37800 (1989) 93600 42400 43400 49700 53300 78100 125000 130000 183000 212000
2026-04-30 06:00 20.80 165000 269000 (2009) 37800 (1989) 93600 42400 43400 49700 53300 78100 125000 130000 183000 212000
2026-04-30 05:00 20.94 167000 269000 (2009) 37800 (1989) 93600 42400 43400 49700 53300 78100 125000 130000 183000 212000
2026-04-30 04:00 21.14 169000 269000 (2009) 37800 (1989) 93600 42400 43400 49700 53300 78100 125000 130000 183000 212000
2026-04-30 03:00 21.30 171000 269000 (2009) 37800 (1989) 93600 42400 43400 49700 53300 78100 125000 130000 183000 212000
2026-04-30 02:00 21.48 173000 269000 (2009) 37800 (1989) 93600 42400 43400 49700 53300 78100 125000 130000 183000 212000
2026-04-30 01:00 21.62 174000 269000 (2009) 37800 (1989) 93600 42400 43400 49700 53300 78100 125000 130000 183000 212000
2026-04-30 00:00 21.74 175000 269000 (2009) 37800 (1989) 93600 42400 43400 49700 53300 78100 125000 130000 183000 212000
2026-04-29 23:00 21.82 176000 269000 (2009) 37800 (1989) 93600 42400 43400 49700 53300 78100 125000 130000 183000 212000
2026-04-29 22:00 21.83 176000 250000 (2009) 37900 (1989) 91600 40500 43600 48600 54200 72700 120000 132000 166000 214000
2026-04-29 21:00 21.84 177000 250000 (2009) 37900 (1989) 91600 40500 43600 48600 54200 72700 120000 132000 166000 214000
2026-04-29 20:00 21.77 176000 250000 (2009) 37900 (1989) 91600 40500 43600 48600 54200 72700 120000 132000 166000 214000
2026-04-29 19:00 21.82 176000 250000 (2009) 37900 (1989) 91600 40500 43600 48600 54200 72700 120000 132000 166000 214000
2026-04-29 18:00 21.85 177000 250000 (2009) 37900 (1989) 91600 40500 43600 48600 54200 72700 120000 132000 166000 214000
2026-04-29 17:00 21.87 177000 250000 (2009) 37900 (1989) 91600 40500 43600 48600 54200 72700 120000 132000 166000 214000
2026-04-29 16:00 21.93 178000 250000 (2009) 37900 (1989) 91600 40500 43600 48600 54200 72700 120000 132000 166000 214000
2026-04-29 15:00 21.88 177000 250000 (2009) 37900 (1989) 91600 40500 43600 48600 54200 72700 120000 132000 166000 214000
2026-04-29 14:00 21.91 177000 250000 (2009) 37900 (1989) 91600 40500 43600 48600 54200 72700 120000 132000 166000 214000
2026-04-29 13:00 21.89 177000 250000 (2009) 37900 (1989) 91600 40500 43600 48600 54200 72700 120000 132000 166000 214000
2026-04-29 12:00 21.77 176000 250000 (2009) 37900 (1989) 91600 40500 43600 48600 54200 72700 120000 132000 166000 214000
2026-04-29 11:00 21.68 175000 250000 (2009) 37900 (1989) 91600 40500 43600 48600 54200 72700 120000 132000 166000 214000
2026-04-29 10:00 21.59 174000 250000 (2009) 37900 (1989) 91600 40500 43600 48600 54200 72700 120000 132000 166000 214000
2026-04-29 09:00 21.59 174000 250000 (2009) 37900 (1989) 91600 40500 43600 48600 54200 72700 120000 132000 166000 214000
2026-04-29 08:00 21.60 174000 250000 (2009) 37900 (1989) 91600 40500 43600 48600 54200 72700 120000 132000 166000 214000
2026-04-29 07:00 21.52 173000 250000 (2009) 37900 (1989) 91600 40500 43600 48600 54200 72700 120000 132000 166000 214000
2026-04-29 06:00 21.38 171000 250000 (2009) 37900 (1989) 91600 40500 43600 48600 54200 72700 120000 132000 166000 214000
2026-04-29 05:00 21.28 170000 250000 (2009) 37900 (1989) 91600 40500 43600 48600 54200 72700 120000 132000 166000 214000
2026-04-29 04:00 21.19 169000 250000 (2009) 37900 (1989) 91600 40500 43600 48600 54200 72700 120000 132000 166000 214000
2026-04-29 03:00 21.05 168000 250000 (2009) 37900 (1989) 91600 40500 43600 48600 54200 72700 120000 132000 166000 214000
2026-04-29 02:00 20.95 167000 250000 (2009) 37900 (1989) 91600 40500 43600 48600 54200 72700 120000 132000 166000 214000
2026-04-29 01:00 20.81 165000 250000 (2009) 37900 (1989) 91600 40500 43600 48600 54200 72700 120000 132000 166000 214000
2026-04-29 00:00 20.58 163000 250000 (2009) 37900 (1989) 91600 40500 43600 48600 54200 72700 120000 132000 166000 214000
2026-04-28 23:00 20.41 161000 250000 (2009) 37900 (1989) 91600 40500 43600 48600 54200 72700 120000 132000 166000 214000
2026-04-28 22:00 20.22 159000 213000 (1999) 38100 (1989) 86200 40300 44700 49100 53800 68000 115000 134000 150000 183000
2026-04-28 21:00 20.02 157000 213000 (1999) 38100 (1989) 86200 40300 44700 49100 53800 68000 115000 134000 150000 183000
2026-04-28 20:00 19.82 155000 213000 (1999) 38100 (1989) 86200 40300 44700 49100 53800 68000 115000 134000 150000 183000
2026-04-28 19:00 19.54 152000 213000 (1999) 38100 (1989) 86200 40300 44700 49100 53800 68000 115000 134000 150000 183000
2026-04-28 18:00 19.25 149000 213000 (1999) 38100 (1989) 86200 40300 44700 49100 53800 68000 115000 134000 150000 183000
2026-04-28 17:00 18.99 147000 213000 (1999) 38100 (1989) 86200 40300 44700 49100 53800 68000 115000 134000 150000 183000
2026-04-28 16:00 18.70 143000 213000 (1999) 38100 (1989) 86200 40300 44700 49100 53800 68000 115000 134000 150000 183000
2026-04-28 15:00 18.43 140000 213000 (1999) 38100 (1989) 86200 40300 44700 49100 53800 68000 115000 134000 150000 183000
2026-04-28 14:00 18.10 137000 213000 (1999) 38100 (1989) 86200 40300 44700 49100 53800 68000 115000 134000 150000 183000
2026-04-28 13:00 17.77 133000 213000 (1999) 38100 (1989) 86200 40300 44700 49100 53800 68000 115000 134000 150000 183000
2026-04-28 12:00 17.48 130000 213000 (1999) 38100 (1989) 86200 40300 44700 49100 53800 68000 115000 134000 150000 183000
2026-04-28 11:00 17.18 127000 213000 (1999) 38100 (1989) 86200 40300 44700 49100 53800 68000 115000 134000 150000 183000
2026-04-28 10:00 16.90 124000 213000 (1999) 38100 (1989) 86200 40300 44700 49100 53800 68000 115000 134000 150000 183000
2026-04-28 09:00 16.71 122000 213000 (1999) 38100 (1989) 86200 40300 44700 49100 53800 68000 115000 134000 150000 183000
2026-04-28 08:00 16.50 120000 213000 (1999) 38100 (1989) 86200 40300 44700 49100 53800 68000 115000 134000 150000 183000
2026-04-28 07:00 16.29 118000 213000 (1999) 38100 (1989) 86200 40300 44700 49100 53800 68000 115000 134000 150000 183000
2026-04-28 06:00 16.13 116000 213000 (1999) 38100 (1989) 86200 40300 44700 49100 53800 68000 115000 134000 150000 183000
2026-04-28 05:00 15.98 115000 213000 (1999) 38100 (1989) 86200 40300 44700 49100 53800 68000 115000 134000 150000 183000
2026-04-28 04:00 15.85 114000 213000 (1999) 38100 (1989) 86200 40300 44700 49100 53800 68000 115000 134000 150000 183000
2026-04-28 03:00 15.69 112000 213000 (1999) 38100 (1989) 86200 40300 44700 49100 53800 68000 115000 134000 150000 183000
2026-04-28 02:00 15.56 111000 213000 (1999) 38100 (1989) 86200 40300 44700 49100 53800 68000 115000 134000 150000 183000
2026-04-28 01:00 15.39 109000 213000 (1999) 38100 (1989) 86200 40300 44700 49100 53800 68000 115000 134000 150000 183000
2026-04-28 00:00 15.22 107000 213000 (1999) 38100 (1989) 86200 40300 44700 49100 53800 68000 115000 134000 150000 183000
2026-04-27 23:00 15.00 105000 213000 (1999) 38100 (1989) 86200 40300 44700 49100 53800 68000 115000 134000 150000 183000
2026-04-27 22:00 14.75 102000 215000 (2010) 38000 (1989) 83100 39600 44600 49400 52100 67000 103000 113000 157000 175000
2026-04-27 21:00 14.45 99300 215000 (2010) 38000 (1989) 83100 39600 44600 49400 52100 67000 103000 113000 157000 175000
2026-04-27 20:00 14.13 96100 215000 (2010) 38000 (1989) 83100 39600 44600 49400 52100 67000 103000 113000 157000 175000
2026-04-27 19:00 13.77 92500 215000 (2010) 38000 (1989) 83100 39600 44600 49400 52100 67000 103000 113000 157000 175000
2026-04-27 18:00 13.35 88500 215000 (2010) 38000 (1989) 83100 39600 44600 49400 52100 67000 103000 113000 157000 175000
2026-04-27 17:00 12.89 84200 215000 (2010) 38000 (1989) 83100 39600 44600 49400 52100 67000 103000 113000 157000 175000
2026-04-27 16:00 12.36 79600 215000 (2010) 38000 (1989) 83100 39600 44600 49400 52100 67000 103000 113000 157000 175000
2026-04-27 15:00 11.95 76200 215000 (2010) 38000 (1989) 83100 39600 44600 49400 52100 67000 103000 113000 157000 175000
2026-04-27 14:00 11.55 73000 215000 (2010) 38000 (1989) 83100 39600 44600 49400 52100 67000 103000 113000 157000 175000
2026-04-27 13:00 11.19 70200 215000 (2010) 38000 (1989) 83100 39600 44600 49400 52100 67000 103000 113000 157000 175000
2026-04-27 12:00 10.83 67500 215000 (2010) 38000 (1989) 83100 39600 44600 49400 52100 67000 103000 113000 157000 175000
2026-04-27 11:00 10.51 65200 215000 (2010) 38000 (1989) 83100 39600 44600 49400 52100 67000 103000 113000 157000 175000
2026-04-27 10:00 10.17 62800 215000 (2010) 38000 (1989) 83100 39600 44600 49400 52100 67000 103000 113000 157000 175000
2026-04-27 09:00 9.97 61400 215000 (2010) 38000 (1989) 83100 39600 44600 49400 52100 67000 103000 113000 157000 175000
2026-04-27 08:00 9.81 60300 215000 (2010) 38000 (1989) 83100 39600 44600 49400 52100 67000 103000 113000 157000 175000
2026-04-27 07:00 9.78 60100 215000 (2010) 38000 (1989) 83100 39600 44600 49400 52100 67000 103000 113000 157000 175000
2026-04-27 06:00 9.76 59900 215000 (2010) 38000 (1989) 83100 39600 44600 49400 52100 67000 103000 113000 157000 175000
2026-04-27 05:00 9.76 59900 215000 (2010) 38000 (1989) 83100 39600 44600 49400 52100 67000 103000 113000 157000 175000
2026-04-27 04:00 9.80 60200 215000 (2010) 38000 (1989) 83100 39600 44600 49400 52100 67000 103000 113000 157000 175000
2026-04-27 03:00 9.82 60400 215000 (2010) 38000 (1989) 83100 39600 44600 49400 52100 67000 103000 113000 157000 175000
2026-04-27 02:00 9.89 60800 215000 (2010) 38000 (1989) 83100 39600 44600 49400 52100 67000 103000 113000 157000 175000
2026-04-27 01:00 9.92 61000 215000 (2010) 38000 (1989) 83100 39600 44600 49400 52100 67000 103000 113000 157000 175000
2026-04-27 00:00 9.93 61100 215000 (2010) 38000 (1989) 83100 39600 44600 49400 52100 67000 103000 113000 157000 175000
2026-04-26 23:00 9.95 61200 215000 (2010) 38000 (1989) 83100 39600 44600 49400 52100 67000 103000 113000 157000 175000
2026-04-26 22:00 9.99 61500 241000 (1973) 37900 (1989) 84900 39400 45300 50300 50900 65500 105000 123000 151000 189000
2026-04-26 21:00 10.04 61900 241000 (1973) 37900 (1989) 84900 39400 45300 50300 50900 65500 105000 123000 151000 189000
2026-04-26 20:00 10.11 62300 241000 (1973) 37900 (1989) 84900 39400 45300 50300 50900 65500 105000 123000 151000 189000
2026-04-26 19:00 10.14 62600 241000 (1973) 37900 (1989) 84900 39400 45300 50300 50900 65500 105000 123000 151000 189000
2026-04-26 18:00 10.21 63000 241000 (1973) 37900 (1989) 84900 39400 45300 50300 50900 65500 105000 123000 151000 189000
2026-04-26 17:00 10.24 63300 241000 (1973) 37900 (1989) 84900 39400 45300 50300 50900 65500 105000 123000 151000 189000
2026-04-26 16:00 10.24 63300 241000 (1973) 37900 (1989) 84900 39400 45300 50300 50900 65500 105000 123000 151000 189000
2026-04-26 15:00 10.28 63500 241000 (1973) 37900 (1989) 84900 39400 45300 50300 50900 65500 105000 123000 151000 189000
2026-04-26 14:00 10.31 63700 241000 (1973) 37900 (1989) 84900 39400 45300 50300 50900 65500 105000 123000 151000 189000
2026-04-26 13:00 10.36 64100 241000 (1973) 37900 (1989) 84900 39400 45300 50300 50900 65500 105000 123000 151000 189000
2026-04-26 12:00 10.39 64300 241000 (1973) 37900 (1989) 84900 39400 45300 50300 50900 65500 105000 123000 151000 189000
2026-04-26 11:00 10.41 64500 241000 (1973) 37900 (1989) 84900 39400 45300 50300 50900 65500 105000 123000 151000 189000
2026-04-26 10:00 10.43 64600 241000 (1973) 37900 (1989) 84900 39400 45300 50300 50900 65500 105000 123000 151000 189000
2026-04-26 09:00 10.46 64800 241000 (1973) 37900 (1989) 84900 39400 45300 50300 50900 65500 105000 123000 151000 189000
2026-04-26 08:00 10.43 64600 241000 (1973) 37900 (1989) 84900 39400 45300 50300 50900 65500 105000 123000 151000 189000
2026-04-26 07:00 10.43 64600 241000 (1973) 37900 (1989) 84900 39400 45300 50300 50900 65500 105000 123000 151000 189000
2026-04-26 06:00 10.41 64500 241000 (1973) 37900 (1989) 84900 39400 45300 50300 50900 65500 105000 123000 151000 189000
2026-04-26 05:00 10.44 64700 241000 (1973) 37900 (1989) 84900 39400 45300 50300 50900 65500 105000 123000 151000 189000
2026-04-26 04:00 10.43 64600 241000 (1973) 37900 (1989) 84900 39400 45300 50300 50900 65500 105000 123000 151000 189000
2026-04-26 03:00 10.39 64300 241000 (1973) 37900 (1989) 84900 39400 45300 50300 50900 65500 105000 123000 151000 189000
2026-04-26 02:00 10.37 64200 241000 (1973) 37900 (1989) 84900 39400 45300 50300 50900 65500 105000 123000 151000 189000
2026-04-26 01:00 10.34 64000 241000 (1973) 37900 (1989) 84900 39400 45300 50300 50900 65500 105000 123000 151000 189000
2026-04-26 00:00 10.30 63700 241000 (1973) 37900 (1989) 84900 39400 45300 50300 50900 65500 105000 123000 151000 189000
2026-04-25 23:00 10.25 63300 241000 (1973) 37900 (1989) 84900 39400 45300 50300 50900 65500 105000 123000 151000 189000
2026-04-25 22:00 10.20 63000 274000 (1973) 37400 (1989) 87200 39500 44500 50000 51200 72400 100000 125000 154000 198000
2026-04-25 21:00 10.11 62300 274000 (1973) 37400 (1989) 87200 39500 44500 50000 51200 72400 100000 125000 154000 198000
2026-04-25 20:00 10.07 62100 274000 (1973) 37400 (1989) 87200 39500 44500 50000 51200 72400 100000 125000 154000 198000
2026-04-25 19:00 10.01 61600 274000 (1973) 37400 (1989) 87200 39500 44500 50000 51200 72400 100000 125000 154000 198000
2026-04-25 18:00 9.95 61200 274000 (1973) 37400 (1989) 87200 39500 44500 50000 51200 72400 100000 125000 154000 198000
2026-04-25 17:00 9.84 60500 274000 (1973) 37400 (1989) 87200 39500 44500 50000 51200 72400 100000 125000 154000 198000
2026-04-25 16:00 9.77 60000 274000 (1973) 37400 (1989) 87200 39500 44500 50000 51200 72400 100000 125000 154000 198000
2026-04-25 15:00 9.71 59600 274000 (1973) 37400 (1989) 87200 39500 44500 50000 51200 72400 100000 125000 154000 198000
2026-04-25 14:00 9.65 59200 274000 (1973) 37400 (1989) 87200 39500 44500 50000 51200 72400 100000 125000 154000 198000
2026-04-25 13:00 9.60 58900 274000 (1973) 37400 (1989) 87200 39500 44500 50000 51200 72400 100000 125000 154000 198000
2026-04-25 12:00 9.55 58500 274000 (1973) 37400 (1989) 87200 39500 44500 50000 51200 72400 100000 125000 154000 198000
2026-04-25 11:00 9.50 58200 274000 (1973) 37400 (1989) 87200 39500 44500 50000 51200 72400 100000 125000 154000 198000
2026-04-25 10:00 9.39 57500 274000 (1973) 37400 (1989) 87200 39500 44500 50000 51200 72400 100000 125000 154000 198000
2026-04-25 09:00 9.37 57400 274000 (1973) 37400 (1989) 87200 39500 44500 50000 51200 72400 100000 125000 154000 198000
2026-04-25 08:00 9.32 57000 274000 (1973) 37400 (1989) 87200 39500 44500 50000 51200 72400 100000 125000 154000 198000
2026-04-25 07:00 9.31 57000 274000 (1973) 37400 (1989) 87200 39500 44500 50000 51200 72400 100000 125000 154000 198000
2026-04-25 06:00 9.23 56500 274000 (1973) 37400 (1989) 87200 39500 44500 50000 51200 72400 100000 125000 154000 198000
2026-04-25 05:00 9.22 56400 274000 (1973) 37400 (1989) 87200 39500 44500 50000 51200 72400 100000 125000 154000 198000
2026-04-25 04:00 9.19 56200 274000 (1973) 37400 (1989) 87200 39500 44500 50000 51200 72400 100000 125000 154000 198000
2026-04-25 03:00 9.15 55900 274000 (1973) 37400 (1989) 87200 39500 44500 50000 51200 72400 100000 125000 154000 198000
2026-04-25 02:00 9.13 55800 274000 (1973) 37400 (1989) 87200 39500 44500 50000 51200 72400 100000 125000 154000 198000
2026-04-25 01:00 9.11 55700 274000 (1973) 37400 (1989) 87200 39500 44500 50000 51200 72400 100000 125000 154000 198000
2026-04-25 00:00 9.10 55600 274000 (1973) 37400 (1989) 87200 39500 44500 50000 51200 72400 100000 125000 154000 198000
2026-04-24 23:00 9.09 55600 274000 (1973) 37400 (1989) 87200 39500 44500 50000 51200 72400 100000 125000 154000 198000
2026-04-24 22:00 9.09 55600 300000 (1973) 37900 (1989) 88400 40400 44500 49400 50500 74100 105000 118000 145000 199000
2026-04-24 21:00 9.09 55600 300000 (1973) 37900 (1989) 88400 40400 44500 49400 50500 74100 105000 118000 145000 199000
2026-04-24 20:00 9.09 55600 300000 (1973) 37900 (1989) 88400 40400 44500 49400 50500 74100 105000 118000 145000 199000
2026-04-24 19:00 9.10 55600 300000 (1973) 37900 (1989) 88400 40400 44500 49400 50500 74100 105000 118000 145000 199000
2026-04-24 18:00 9.10 55600 300000 (1973) 37900 (1989) 88400 40400 44500 49400 50500 74100 105000 118000 145000 199000
2026-04-24 17:00 9.09 55600 300000 (1973) 37900 (1989) 88400 40400 44500 49400 50500 74100 105000 118000 145000 199000
2026-04-24 16:00 9.11 55700 300000 (1973) 37900 (1989) 88400 40400 44500 49400 50500 74100 105000 118000 145000 199000
2026-04-24 15:00 9.12 55700 300000 (1973) 37900 (1989) 88400 40400 44500 49400 50500 74100 105000 118000 145000 199000
2026-04-24 14:00 9.12 55700 300000 (1973) 37900 (1989) 88400 40400 44500 49400 50500 74100 105000 118000 145000 199000
2026-04-24 13:00 9.14 55900 300000 (1973) 37900 (1989) 88400 40400 44500 49400 50500 74100 105000 118000 145000 199000
2026-04-24 12:00 9.15 55900 300000 (1973) 37900 (1989) 88400 40400 44500 49400 50500 74100 105000 118000 145000 199000
2026-04-24 11:00 9.14 55900 300000 (1973) 37900 (1989) 88400 40400 44500 49400 50500 74100 105000 118000 145000 199000
2026-04-24 10:00 9.12 55700 300000 (1973) 37900 (1989) 88400 40400 44500 49400 50500 74100 105000 118000 145000 199000
2026-04-24 09:00 9.16 56000 300000 (1973) 37900 (1989) 88400 40400 44500 49400 50500 74100 105000 118000 145000 199000
2026-04-24 08:00 9.18 56100 300000 (1973) 37900 (1989) 88400 40400 44500 49400 50500 74100 105000 118000 145000 199000
2026-04-24 07:00 9.18 56100 300000 (1973) 37900 (1989) 88400 40400 44500 49400 50500 74100 105000 118000 145000 199000
2026-04-24 06:00 9.20 56300 300000 (1973) 37900 (1989) 88400 40400 44500 49400 50500 74100 105000 118000 145000 199000
2026-04-24 05:00 9.20 56300 300000 (1973) 37900 (1989) 88400 40400 44500 49400 50500 74100 105000 118000 145000 199000
2026-04-24 04:00 9.22 56400 300000 (1973) 37900 (1989) 88400 40400 44500 49400 50500 74100 105000 118000 145000 199000
2026-04-24 03:00 9.15 55900 300000 (1973) 37900 (1989) 88400 40400 44500 49400 50500 74100 105000 118000 145000 199000
2026-04-24 02:00 9.21 56300 300000 (1973) 37900 (1989) 88400 40400 44500 49400 50500 74100 105000 118000 145000 199000
2026-04-24 01:00 9.22 56400 300000 (1973) 37900 (1989) 88400 40400 44500 49400 50500 74100 105000 118000 145000 199000
2026-04-24 00:00 9.16 56000 300000 (1973) 37900 (1989) 88400 40400 44500 49400 50500 74100 105000 118000 145000 199000
2026-04-23 23:00 9.20 56300 300000 (1973) 37900 (1989) 88400 40400 44500 49400 50500 74100 105000 118000 145000 199000
2026-04-23 22:00 9.21 56300 313000 (1973) 39200 (1989) 88400 41700 45300 48700 52200 72100 115000 116000 162000 174000
2026-04-23 21:00 9.23 56500 313000 (1973) 39200 (1989) 88400 41700 45300 48700 52200 72100 115000 116000 162000 174000
2026-04-23 20:00 9.24 56500 313000 (1973) 39200 (1989) 88400 41700 45300 48700 52200 72100 115000 116000 162000 174000
2026-04-23 19:00 9.22 56400 313000 (1973) 39200 (1989) 88400 41700 45300 48700 52200 72100 115000 116000 162000 174000
2026-04-23 18:00 9.24 56500 313000 (1973) 39200 (1989) 88400 41700 45300 48700 52200 72100 115000 116000 162000 174000
2026-04-23 17:00 9.26 56600 313000 (1973) 39200 (1989) 88400 41700 45300 48700 52200 72100 115000 116000 162000 174000
2026-04-23 16:00 9.30 56900 313000 (1973) 39200 (1989) 88400 41700 45300 48700 52200 72100 115000 116000 162000 174000
2026-04-23 15:00 9.30 56900 313000 (1973) 39200 (1989) 88400 41700 45300 48700 52200 72100 115000 116000 162000 174000
2026-04-23 14:00 9.35 57200 313000 (1973) 39200 (1989) 88400 41700 45300 48700 52200 72100 115000 116000 162000 174000
2026-04-23 13:00 9.37 57400 313000 (1973) 39200 (1989) 88400 41700 45300 48700 52200 72100 115000 116000 162000 174000
2026-04-23 12:00 9.36 57300 313000 (1973) 39200 (1989) 88400 41700 45300 48700 52200 72100 115000 116000 162000 174000
2026-04-23 11:00 9.38 57400 313000 (1973) 39200 (1989) 88400 41700 45300 48700 52200 72100 115000 116000 162000 174000
2026-04-23 10:00 9.42 57700 313000 (1973) 39200 (1989) 88400 41700 45300 48700 52200 72100 115000 116000 162000 174000
2026-04-23 09:00 9.44 57800 313000 (1973) 39200 (1989) 88400 41700 45300 48700 52200 72100 115000 116000 162000 174000
2026-04-23 08:00 9.47 58000 313000 (1973) 39200 (1989) 88400 41700 45300 48700 52200 72100 115000 116000 162000 174000
2026-04-23 07:00 9.50 58200 313000 (1973) 39200 (1989) 88400 41700 45300 48700 52200 72100 115000 116000 162000 174000
2026-04-23 06:00 9.53 58400 313000 (1973) 39200 (1989) 88400 41700 45300 48700 52200 72100 115000 116000 162000 174000
2026-04-23 05:00 9.54 58500 313000 (1973) 39200 (1989) 88400 41700 45300 48700 52200 72100 115000 116000 162000 174000
2026-04-23 04:00 9.57 58700 313000 (1973) 39200 (1989) 88400 41700 45300 48700 52200 72100 115000 116000 162000 174000
2026-04-23 03:00 9.61 58900 313000 (1973) 39200 (1989) 88400 41700 45300 48700 52200 72100 115000 116000 162000 174000
2026-04-23 02:00 9.63 59100 313000 (1973) 39200 (1989) 88400 41700 45300 48700 52200 72100 115000 116000 162000 174000
2026-04-23 01:00 9.66 59300 313000 (1973) 39200 (1989) 88400 41700 45300 48700 52200 72100 115000 116000 162000 174000
2026-04-23 00:00 9.68 59400 313000 (1973) 39200 (1989) 88400 41700 45300 48700 52200 72100 115000 116000 162000 174000
2026-04-22 23:00 9.72 59700 313000 (1973) 39200 (1989) 88400 41700 45300 48700 52200 72100 115000 116000 162000 174000
2026-04-22 22:00 9.73 59700 320000 (1973) 39100 (1989) 88100 41500 45000 48900 50100 71200 120000 124000 145000 190000
2026-04-22 21:00 9.76 59900 320000 (1973) 39100 (1989) 88100 41500 45000 48900 50100 71200 120000 124000 145000 190000
2026-04-22 20:00 9.79 60100 320000 (1973) 39100 (1989) 88100 41500 45000 48900 50100 71200 120000 124000 145000 190000
2026-04-22 19:00 9.83 60400 320000 (1973) 39100 (1989) 88100 41500 45000 48900 50100 71200 120000 124000 145000 190000
2026-04-22 18:00 9.87 60700 320000 (1973) 39100 (1989) 88100 41500 45000 48900 50100 71200 120000 124000 145000 190000
2026-04-22 17:00 9.91 61000 320000 (1973) 39100 (1989) 88100 41500 45000 48900 50100 71200 120000 124000 145000 190000
2026-04-22 16:00 9.96 61300 320000 (1973) 39100 (1989) 88100 41500 45000 48900 50100 71200 120000 124000 145000 190000
2026-04-22 15:00 9.98 61400 320000 (1973) 39100 (1989) 88100 41500 45000 48900 50100 71200 120000 124000 145000 190000
2026-04-22 14:00 10.02 61700 320000 (1973) 39100 (1989) 88100 41500 45000 48900 50100 71200 120000 124000 145000 190000
2026-04-22 13:00 10.06 62000 320000 (1973) 39100 (1989) 88100 41500 45000 48900 50100 71200 120000 124000 145000 190000
2026-04-22 12:00 10.08 62100 320000 (1973) 39100 (1989) 88100 41500 45000 48900 50100 71200 120000 124000 145000 190000
2026-04-22 11:00 10.12 62400 320000 (1973) 39100 (1989) 88100 41500 45000 48900 50100 71200 120000 124000 145000 190000
2026-04-22 10:00 10.17 62800 320000 (1973) 39100 (1989) 88100 41500 45000 48900 50100 71200 120000 124000 145000 190000
2026-04-22 09:00 10.20 63000 320000 (1973) 39100 (1989) 88100 41500 45000 48900 50100 71200 120000 124000 145000 190000
2026-04-22 08:00 10.25 63300 320000 (1973) 39100 (1989) 88100 41500 45000 48900 50100 71200 120000 124000 145000 190000
2026-04-22 07:00 10.29 63600 320000 (1973) 39100 (1989) 88100 41500 45000 48900 50100 71200 120000 124000 145000 190000
2026-04-22 06:00 10.33 63900 320000 (1973) 39100 (1989) 88100 41500 45000 48900 50100 71200 120000 124000 145000 190000
2026-04-22 05:00 10.39 64300 320000 (1973) 39100 (1989) 88100 41500 45000 48900 50100 71200 120000 124000 145000 190000
2026-04-22 04:00 10.42 64500 320000 (1973) 39100 (1989) 88100 41500 45000 48900 50100 71200 120000 124000 145000 190000
2026-04-22 03:00 10.46 64800 320000 (1973) 39100 (1989) 88100 41500 45000 48900 50100 71200 120000 124000 145000 190000
2026-04-22 02:00 10.51 65200 320000 (1973) 39100 (1989) 88100 41500 45000 48900 50100 71200 120000 124000 145000 190000
2026-04-22 01:00 10.54 65400 320000 (1973) 39100 (1989) 88100 41500 45000 48900 50100 71200 120000 124000 145000 190000
2026-04-22 00:00 10.58 65700 320000 (1973) 39100 (1989) 88100 41500 45000 48900 50100 71200 120000 124000 145000 190000
2026-04-21 23:00 10.62 66000 320000 (1973) 39100 (1989) 88100 41500 45000 48900 50100 71200 120000 124000 145000 190000
2026-04-21 22:00 10.67 66300 292000 (1973) 38200 (2004) 87800 39600 42700 47900 50600 69800 113000 128000 161000 196000
2026-04-21 21:00 10.70 66500 292000 (1973) 38200 (2004) 87800 39600 42700 47900 50600 69800 113000 128000 161000 196000
2026-04-21 20:00 10.78 67100 292000 (1973) 38200 (2004) 87800 39600 42700 47900 50600 69800 113000 128000 161000 196000
2026-04-21 19:00 10.81 67400 292000 (1973) 38200 (2004) 87800 39600 42700 47900 50600 69800 113000 128000 161000 196000
2026-04-21 18:00 10.83 67500 292000 (1973) 38200 (2004) 87800 39600 42700 47900 50600 69800 113000 128000 161000 196000
2026-04-21 17:00 10.89 68000 292000 (1973) 38200 (2004) 87800 39600 42700 47900 50600 69800 113000 128000 161000 196000
2026-04-21 16:00 10.93 68200 292000 (1973) 38200 (2004) 87800 39600 42700 47900 50600 69800 113000 128000 161000 196000
2026-04-21 15:00 10.98 68600 292000 (1973) 38200 (2004) 87800 39600 42700 47900 50600 69800 113000 128000 161000 196000
2026-04-21 14:00 11.07 69300 292000 (1973) 38200 (2004) 87800 39600 42700 47900 50600 69800 113000 128000 161000 196000
2026-04-21 13:00 11.16 70000 292000 (1973) 38200 (2004) 87800 39600 42700 47900 50600 69800 113000 128000 161000 196000
2026-04-21 12:00 11.28 70900 292000 (1973) 38200 (2004) 87800 39600 42700 47900 50600 69800 113000 128000 161000 196000
2026-04-21 11:00 11.31 71100 292000 (1973) 38200 (2004) 87800 39600 42700 47900 50600 69800 113000 128000 161000 196000
2026-04-21 10:00 11.42 72000 292000 (1973) 38200 (2004) 87800 39600 42700 47900 50600 69800 113000 128000 161000 196000
2026-04-21 09:00 11.50 72600 292000 (1973) 38200 (2004) 87800 39600 42700 47900 50600 69800 113000 128000 161000 196000
2026-04-21 08:00 11.59 73300 292000 (1973) 38200 (2004) 87800 39600 42700 47900 50600 69800 113000 128000 161000 196000
2026-04-21 07:00 11.67 73900 292000 (1973) 38200 (2004) 87800 39600 42700 47900 50600 69800 113000 128000 161000 196000
2026-04-21 06:00 11.75 74600 292000 (1973) 38200 (2004) 87800 39600 42700 47900 50600 69800 113000 128000 161000 196000
2026-04-21 05:00 11.84 75300 292000 (1973) 38200 (2004) 87800 39600 42700 47900 50600 69800 113000 128000 161000 196000
2026-04-21 04:00 11.92 75900 292000 (1973) 38200 (2004) 87800 39600 42700 47900 50600 69800 113000 128000 161000 196000
2026-04-21 03:00 12.03 76800 292000 (1973) 38200 (2004) 87800 39600 42700 47900 50600 69800 113000 128000 161000 196000
2026-04-21 02:00 12.14 77700 292000 (1973) 38200 (2004) 87800 39600 42700 47900 50600 69800 113000 128000 161000 196000
2026-04-21 01:00 12.23 78500 292000 (1973) 38200 (2004) 87800 39600 42700 47900 50600 69800 113000 128000 161000 196000
2026-04-21 00:00 12.36 79600 292000 (1973) 38200 (2004) 87800 39600 42700 47900 50600 69800 113000 128000 161000 196000
2026-04-20 23:00 12.47 80500 292000 (1973) 38200 (2004) 87800 39600 42700 47900 50600 69800 113000 128000 161000 196000
2026-04-20 22:00 12.59 81500 228000 (1973) 36900 (2003) 87300 39600 41900 46700 49700 66900 118000 131000 162000 210000
2026-04-20 21:00 12.71 82600 228000 (1973) 36900 (2003) 87300 39600 41900 46700 49700 66900 118000 131000 162000 210000
2026-04-20 20:00 12.84 83800 228000 (1973) 36900 (2003) 87300 39600 41900 46700 49700 66900 118000 131000 162000 210000
2026-04-20 19:00 12.98 85000 228000 (1973) 36900 (2003) 87300 39600 41900 46700 49700 66900 118000 131000 162000 210000
2026-04-20 18:00 13.12 86300 228000 (1973) 36900 (2003) 87300 39600 41900 46700 49700 66900 118000 131000 162000 210000
2026-04-20 17:00 13.31 88100 228000 (1973) 36900 (2003) 87300 39600 41900 46700 49700 66900 118000 131000 162000 210000
2026-04-20 16:00 13.44 89300 228000 (1973) 36900 (2003) 87300 39600 41900 46700 49700 66900 118000 131000 162000 210000
2026-04-20 15:00 13.65 91400 228000 (1973) 36900 (2003) 87300 39600 41900 46700 49700 66900 118000 131000 162000 210000
2026-04-20 14:00 13.81 92900 228000 (1973) 36900 (2003) 87300 39600 41900 46700 49700 66900 118000 131000 162000 210000
2026-04-20 13:00 14.01 94900 228000 (1973) 36900 (2003) 87300 39600 41900 46700 49700 66900 118000 131000 162000 210000
2026-04-20 12:00 14.20 96800 228000 (1973) 36900 (2003) 87300 39600 41900 46700 49700 66900 118000 131000 162000 210000
2026-04-20 11:00 14.37 98500 228000 (1973) 36900 (2003) 87300 39600 41900 46700 49700 66900 118000 131000 162000 210000
2026-04-20 10:00 14.55 100000 228000 (1973) 36900 (2003) 87300 39600 41900 46700 49700 66900 118000 131000 162000 210000
2026-04-20 09:00 14.71 102000 228000 (1973) 36900 (2003) 87300 39600 41900 46700 49700 66900 118000 131000 162000 210000
2026-04-20 08:00 14.86 103000 228000 (1973) 36900 (2003) 87300 39600 41900 46700 49700 66900 118000 131000 162000 210000
2026-04-20 07:00 15.04 105000 228000 (1973) 36900 (2003) 87300 39600 41900 46700 49700 66900 118000 131000 162000 210000
2026-04-20 06:00 15.15 106000 228000 (1973) 36900 (2003) 87300 39600 41900 46700 49700 66900 118000 131000 162000 210000
2026-04-20 05:00 15.24 107000 228000 (1973) 36900 (2003) 87300 39600 41900 46700 49700 66900 118000 131000 162000 210000
2026-04-20 04:00 15.33 108000 228000 (1973) 36900 (2003) 87300 39600 41900 46700 49700 66900 118000 131000 162000 210000
2026-04-20 03:00 15.39 109000 228000 (1973) 36900 (2003) 87300 39600 41900 46700 49700 66900 118000 131000 162000 210000
2026-04-20 02:00 15.41 109000 228000 (1973) 36900 (2003) 87300 39600 41900 46700 49700 66900 118000 131000 162000 210000
2026-04-20 01:00 15.46 110000 228000 (1973) 36900 (2003) 87300 39600 41900 46700 49700 66900 118000 131000 162000 210000
2026-04-20 00:00 15.55 111000 228000 (1973) 36900 (2003) 87300 39600 41900 46700 49700 66900 118000 131000 162000 210000
2026-04-19 23:00 15.60 111000 228000 (1973) 36900 (2003) 87300 39600 41900 46700 49700 66900 118000 131000 162000 210000
2026-04-19 22:00 15.64 112000 249000 (1999) 36500 (2003) 86900 38600 41900 44300 49400 66400 106000 126000 170000 202000
2026-04-19 21:00 15.66 112000 249000 (1999) 36500 (2003) 86900 38600 41900 44300 49400 66400 106000 126000 170000 202000
2026-04-19 20:00 15.66 112000 249000 (1999) 36500 (2003) 86900 38600 41900 44300 49400 66400 106000 126000 170000 202000
2026-04-19 19:00 15.66 112000 249000 (1999) 36500 (2003) 86900 38600 41900 44300 49400 66400 106000 126000 170000 202000
2026-04-19 18:00 15.67 112000 249000 (1999) 36500 (2003) 86900 38600 41900 44300 49400 66400 106000 126000 170000 202000
2026-04-19 17:00 15.64 112000 249000 (1999) 36500 (2003) 86900 38600 41900 44300 49400 66400 106000 126000 170000 202000
2026-04-19 16:00 15.62 111000 249000 (1999) 36500 (2003) 86900 38600 41900 44300 49400 66400 106000 126000 170000 202000
2026-04-19 15:00 15.57 111000 249000 (1999) 36500 (2003) 86900 38600 41900 44300 49400 66400 106000 126000 170000 202000
2026-04-19 14:00 15.53 110000 249000 (1999) 36500 (2003) 86900 38600 41900 44300 49400 66400 106000 126000 170000 202000
2026-04-19 13:00 15.44 110000 249000 (1999) 36500 (2003) 86900 38600 41900 44300 49400 66400 106000 126000 170000 202000
2026-04-19 12:00 15.34 108000 249000 (1999) 36500 (2003) 86900 38600 41900 44300 49400 66400 106000 126000 170000 202000
2026-04-19 11:00 15.30 108000 249000 (1999) 36500 (2003) 86900 38600 41900 44300 49400 66400 106000 126000 170000 202000
2026-04-19 10:00 15.21 107000 249000 (1999) 36500 (2003) 86900 38600 41900 44300 49400 66400 106000 126000 170000 202000
2026-04-19 09:00 15.12 106000 249000 (1999) 36500 (2003) 86900 38600 41900 44300 49400 66400 106000 126000 170000 202000
2026-04-19 08:00 15.00 105000 249000 (1999) 36500 (2003) 86900 38600 41900 44300 49400 66400 106000 126000 170000 202000
2026-04-19 07:00 14.87 104000 249000 (1999) 36500 (2003) 86900 38600 41900 44300 49400 66400 106000 126000 170000 202000
2026-04-19 06:00 14.73 102000 249000 (1999) 36500 (2003) 86900 38600 41900 44300 49400 66400 106000 126000 170000 202000
2026-04-19 05:00 14.59 101000 249000 (1999) 36500 (2003) 86900 38600 41900 44300 49400 66400 106000 126000 170000 202000
2026-04-19 04:00 14.45 99300 249000 (1999) 36500 (2003) 86900 38600 41900 44300 49400 66400 106000 126000 170000 202000
2026-04-19 03:00 14.28 97600 249000 (1999) 36500 (2003) 86900 38600 41900 44300 49400 66400 106000 126000 170000 202000
2026-04-19 02:00 14.12 96000 249000 (1999) 36500 (2003) 86900 38600 41900 44300 49400 66400 106000 126000 170000 202000
2026-04-19 01:00 13.96 94400 249000 (1999) 36500 (2003) 86900 38600 41900 44300 49400 66400 106000 126000 170000 202000
2026-04-19 00:00 13.80 92800 249000 (1999) 36500 (2003) 86900 38600 41900 44300 49400 66400 106000 126000 170000 202000
2026-04-18 23:00 13.62 91100 249000 (1999) 36500 (2003) 86900 38600 41900 44300 49400 66400 106000 126000 170000 202000
2026-04-18 22:00 13.44 89300 262000 (1999) 35600 (2003) 86100 39800 41900 45200 50200 68200 101000 130000 167000 211000
2026-04-18 21:00 13.27 87700 262000 (1999) 35600 (2003) 86100 39800 41900 45200 50200 68200 101000 130000 167000 211000
2026-04-18 20:00 13.08 86000 262000 (1999) 35600 (2003) 86100 39800 41900 45200 50200 68200 101000 130000 167000 211000
2026-04-18 19:00 12.90 84300 262000 (1999) 35600 (2003) 86100 39800 41900 45200 50200 68200 101000 130000 167000 211000
2026-04-18 18:00 12.73 82800 262000 (1999) 35600 (2003) 86100 39800 41900 45200 50200 68200 101000 130000 167000 211000
2026-04-18 17:00 12.58 81400 262000 (1999) 35600 (2003) 86100 39800 41900 45200 50200 68200 101000 130000 167000 211000
2026-04-18 16:00 12.44 80300 262000 (1999) 35600 (2003) 86100 39800 41900 45200 50200 68200 101000 130000 167000 211000
2026-04-18 15:00 12.29 79000 262000 (1999) 35600 (2003) 86100 39800 41900 45200 50200 68200 101000 130000 167000 211000
2026-04-18 14:00 12.13 77700 262000 (1999) 35600 (2003) 86100 39800 41900 45200 50200 68200 101000 130000 167000 211000
2026-04-18 13:00 12.00 76600 262000 (1999) 35600 (2003) 86100 39800 41900 45200 50200 68200 101000 130000 167000 211000
2026-04-18 12:00 11.84 75300 262000 (1999) 35600 (2003) 86100 39800 41900 45200 50200 68200 101000 130000 167000 211000
2026-04-18 11:00 11.71 74300 262000 (1999) 35600 (2003) 86100 39800 41900 45200 50200 68200 101000 130000 167000 211000
2026-04-18 10:00 11.61 73500 262000 (1999) 35600 (2003) 86100 39800 41900 45200 50200 68200 101000 130000 167000 211000
2026-04-18 09:00 11.50 72600 262000 (1999) 35600 (2003) 86100 39800 41900 45200 50200 68200 101000 130000 167000 211000
2026-04-18 08:00 11.42 72000 262000 (1999) 35600 (2003) 86100 39800 41900 45200 50200 68200 101000 130000 167000 211000
2026-04-18 07:00 11.36 71500 262000 (1999) 35600 (2003) 86100 39800 41900 45200 50200 68200 101000 130000 167000 211000
2026-04-18 06:00 11.30 71100 262000 (1999) 35600 (2003) 86100 39800 41900 45200 50200 68200 101000 130000 167000 211000
2026-04-18 05:00 11.26 70700 262000 (1999) 35600 (2003) 86100 39800 41900 45200 50200 68200 101000 130000 167000 211000
2026-04-18 04:00 11.23 70500 262000 (1999) 35600 (2003) 86100 39800 41900 45200 50200 68200 101000 130000 167000 211000
2026-04-18 03:00 11.20 70300 262000 (1999) 35600 (2003) 86100 39800 41900 45200 50200 68200 101000 130000 167000 211000
2026-04-18 02:00 11.17 70100 262000 (1999) 35600 (2003) 86100 39800 41900 45200 50200 68200 101000 130000 167000 211000
2026-04-18 01:00 11.14 69800 262000 (1999) 35600 (2003) 86100 39800 41900 45200 50200 68200 101000 130000 167000 211000
2026-04-18 00:00 11.04 69100 262000 (1999) 35600 (2003) 86100 39800 41900 45200 50200 68200 101000 130000 167000 211000
2026-04-17 23:00 11.07 69300 262000 (1999) 35600 (2003) 86100 39800 41900 45200 50200 68200 101000 130000 167000 211000
2026-04-17 22:00 11.03 69000 248000 (1999) 35200 (2003) 85200 39400 42000 47300 50000 66700 101000 124000 162000 214000
2026-04-17 21:00 10.99 68700 248000 (1999) 35200 (2003) 85200 39400 42000 47300 50000 66700 101000 124000 162000 214000
2026-04-17 20:00 10.99 68700 248000 (1999) 35200 (2003) 85200 39400 42000 47300 50000 66700 101000 124000 162000 214000
2026-04-17 19:00 10.99 68700 248000 (1999) 35200 (2003) 85200 39400 42000 47300 50000 66700 101000 124000 162000 214000
2026-04-17 18:00 11.01 68800 248000 (1999) 35200 (2003) 85200 39400 42000 47300 50000 66700 101000 124000 162000 214000
2026-04-17 17:00 11.00 68800 248000 (1999) 35200 (2003) 85200 39400 42000 47300 50000 66700 101000 124000 162000 214000
2026-04-17 16:00 11.03 69000 248000 (1999) 35200 (2003) 85200 39400 42000 47300 50000 66700 101000 124000 162000 214000
2026-04-17 15:00 11.07 69300 248000 (1999) 35200 (2003) 85200 39400 42000 47300 50000 66700 101000 124000 162000 214000
2026-04-17 14:00 11.05 69100 248000 (1999) 35200 (2003) 85200 39400 42000 47300 50000 66700 101000 124000 162000 214000
2026-04-17 13:00 11.10 69500 248000 (1999) 35200 (2003) 85200 39400 42000 47300 50000 66700 101000 124000 162000 214000
2026-04-17 12:00 11.13 69800 248000 (1999) 35200 (2003) 85200 39400 42000 47300 50000 66700 101000 124000 162000 214000
2026-04-17 11:00 11.16 70000 248000 (1999) 35200 (2003) 85200 39400 42000 47300 50000 66700 101000 124000 162000 214000
2026-04-17 10:00 11.17 70100 248000 (1999) 35200 (2003) 85200 39400 42000 47300 50000 66700 101000 124000 162000 214000
2026-04-17 09:00 11.18 70100 248000 (1999) 35200 (2003) 85200 39400 42000 47300 50000 66700 101000 124000 162000 214000
2026-04-17 08:00 11.20 70300 248000 (1999) 35200 (2003) 85200 39400 42000 47300 50000 66700 101000 124000 162000 214000
2026-04-17 07:00 11.21 70400 248000 (1999) 35200 (2003) 85200 39400 42000 47300 50000 66700 101000 124000 162000 214000
2026-04-17 06:00 11.22 70400 248000 (1999) 35200 (2003) 85200 39400 42000 47300 50000 66700 101000 124000 162000 214000
2026-04-17 05:00 11.23 70500 248000 (1999) 35200 (2003) 85200 39400 42000 47300 50000 66700 101000 124000 162000 214000
2026-04-17 04:00 11.26 70700 248000 (1999) 35200 (2003) 85200 39400 42000 47300 50000 66700 101000 124000 162000 214000
2026-04-17 03:00 11.29 71000 248000 (1999) 35200 (2003) 85200 39400 42000 47300 50000 66700 101000 124000 162000 214000
2026-04-17 02:00 11.33 71300 248000 (1999) 35200 (2003) 85200 39400 42000 47300 50000 66700 101000 124000 162000 214000
2026-04-17 01:00 11.32 71200 248000 (1999) 35200 (2003) 85200 39400 42000 47300 50000 66700 101000 124000 162000 214000
2026-04-17 00:00 11.29 71000 248000 (1999) 35200 (2003) 85200 39400 42000 47300 50000 66700 101000 124000 162000 214000
2026-04-16 23:00 11.42 72000 248000 (1999) 35200 (2003) 85200 39400 42000 47300 50000 66700 101000 124000 162000 214000
2026-04-16 22:00 11.45 72200 235000 (1997) 35200 (2003) 85400 38700 41800 47300 49700 66900 107000 119000 159000 199000
2026-04-16 21:00 11.50 72600 235000 (1997) 35200 (2003) 85400 38700 41800 47300 49700 66900 107000 119000 159000 199000
2026-04-16 20:00 11.54 72900 235000 (1997) 35200 (2003) 85400 38700 41800 47300 49700 66900 107000 119000 159000 199000
2026-04-16 19:00 11.58 73200 235000 (1997) 35200 (2003) 85400 38700 41800 47300 49700 66900 107000 119000 159000 199000
2026-04-16 18:00 11.63 73600 235000 (1997) 35200 (2003) 85400 38700 41800 47300 49700 66900 107000 119000 159000 199000
2026-04-16 17:00 11.69 74100 235000 (1997) 35200 (2003) 85400 38700 41800 47300 49700 66900 107000 119000 159000 199000
2026-04-16 16:00 11.76 74700 235000 (1997) 35200 (2003) 85400 38700 41800 47300 49700 66900 107000 119000 159000 199000
2026-04-16 15:00 11.81 75100 235000 (1997) 35200 (2003) 85400 38700 41800 47300 49700 66900 107000 119000 159000 199000
2026-04-16 14:00 11.87 75500 235000 (1997) 35200 (2003) 85400 38700 41800 47300 49700 66900 107000 119000 159000 199000
2026-04-16 13:00 11.92 75900 235000 (1997) 35200 (2003) 85400 38700 41800 47300 49700 66900 107000 119000 159000 199000
2026-04-16 12:00 12.00 76600 235000 (1997) 35200 (2003) 85400 38700 41800 47300 49700 66900 107000 119000 159000 199000
2026-04-16 11:00 12.04 76900 235000 (1997) 35200 (2003) 85400 38700 41800 47300 49700 66900 107000 119000 159000 199000
2026-04-16 10:00 12.15 77800 235000 (1997) 35200 (2003) 85400 38700 41800 47300 49700 66900 107000 119000 159000 199000
2026-04-16 09:00 12.23 78500 235000 (1997) 35200 (2003) 85400 38700 41800 47300 49700 66900 107000 119000 159000 199000
2026-04-16 08:00 12.31 79200 235000 (1997) 35200 (2003) 85400 38700 41800 47300 49700 66900 107000 119000 159000 199000
2026-04-16 07:00 12.39 79800 235000 (1997) 35200 (2003) 85400 38700 41800 47300 49700 66900 107000 119000 159000 199000
2026-04-16 06:00 12.48 80600 235000 (1997) 35200 (2003) 85400 38700 41800 47300 49700 66900 107000 119000 159000 199000
2026-04-16 05:00 12.56 81300 235000 (1997) 35200 (2003) 85400 38700 41800 47300 49700 66900 107000 119000 159000 199000
2026-04-16 04:00 12.65 82000 235000 (1997) 35200 (2003) 85400 38700 41800 47300 49700 66900 107000 119000 159000 199000
2026-04-16 03:00 12.75 82900 235000 (1997) 35200 (2003) 85400 38700 41800 47300 49700 66900 107000 119000 159000 199000
2026-04-16 02:00 12.83 83700 235000 (1997) 35200 (2003) 85400 38700 41800 47300 49700 66900 107000 119000 159000 199000
2026-04-16 01:00 12.93 84600 235000 (1997) 35200 (2003) 85400 38700 41800 47300 49700 66900 107000 119000 159000 199000
2026-04-16 00:00 13.03 85500 235000 (1997) 35200 (2003) 85400 38700 41800 47300 49700 66900 107000 119000 159000 199000
2026-04-15 23:00 13.13 86400 235000 (1997) 35200 (2003) 85400 38700 41800 47300 49700 66900 107000 119000 159000 199000
2026-04-15 22:00 13.23 87400 257000 (1997) 35200 (2003) 85900 38700 40900 47800 49600 70600 112000 125000 149000 180000
2026-04-15 21:00 13.33 88300 257000 (1997) 35200 (2003) 85900 38700 40900 47800 49600 70600 112000 125000 149000 180000
2026-04-15 20:00 13.43 89200 257000 (1997) 35200 (2003) 85900 38700 40900 47800 49600 70600 112000 125000 149000 180000
2026-04-15 19:00 13.47 89600 257000 (1997) 35200 (2003) 85900 38700 40900 47800 49600 70600 112000 125000 149000 180000
2026-04-15 18:00 13.59 90800 257000 (1997) 35200 (2003) 85900 38700 40900 47800 49600 70600 112000 125000 149000 180000
2026-04-15 17:00 13.69 91800 257000 (1997) 35200 (2003) 85900 38700 40900 47800 49600 70600 112000 125000 149000 180000
2026-04-15 16:00 13.80 92800 257000 (1997) 35200 (2003) 85900 38700 40900 47800 49600 70600 112000 125000 149000 180000
2026-04-15 15:00 13.90 93800 257000 (1997) 35200 (2003) 85900 38700 40900 47800 49600 70600 112000 125000 149000 180000
2026-04-15 14:00 13.97 94500 257000 (1997) 35200 (2003) 85900 38700 40900 47800 49600 70600 112000 125000 149000 180000
2026-04-15 13:00 14.06 95400 257000 (1997) 35200 (2003) 85900 38700 40900 47800 49600 70600 112000 125000 149000 180000
2026-04-15 12:00 14.13 96100 257000 (1997) 35200 (2003) 85900 38700 40900 47800 49600 70600 112000 125000 149000 180000
2026-04-15 11:00 14.20 96800 257000 (1997) 35200 (2003) 85900 38700 40900 47800 49600 70600 112000 125000 149000 180000
2026-04-15 10:00 14.23 97100 257000 (1997) 35200 (2003) 85900 38700 40900 47800 49600 70600 112000 125000 149000 180000
2026-04-15 09:00 14.30 97800 257000 (1997) 35200 (2003) 85900 38700 40900 47800 49600 70600 112000 125000 149000 180000
2026-04-15 08:00 14.32 98000 257000 (1997) 35200 (2003) 85900 38700 40900 47800 49600 70600 112000 125000 149000 180000
2026-04-15 07:00 14.39 98700 257000 (1997) 35200 (2003) 85900 38700 40900 47800 49600 70600 112000 125000 149000 180000
2026-04-15 06:00 14.40 98800 257000 (1997) 35200 (2003) 85900 38700 40900 47800 49600 70600 112000 125000 149000 180000
2026-04-15 05:00 14.43 99100 257000 (1997) 35200 (2003) 85900 38700 40900 47800 49600 70600 112000 125000 149000 180000
2026-04-15 04:00 14.43 99100 257000 (1997) 35200 (2003) 85900 38700 40900 47800 49600 70600 112000 125000 149000 180000
2026-04-15 03:00 14.43 99100 257000 (1997) 35200 (2003) 85900 38700 40900 47800 49600 70600 112000 125000 149000 180000
2026-04-15 02:00 14.41 98900 257000 (1997) 35200 (2003) 85900 38700 40900 47800 49600 70600 112000 125000 149000 180000
2026-04-15 01:00 14.39 98700 257000 (1997) 35200 (2003) 85900 38700 40900 47800 49600 70600 112000 125000 149000 180000
2026-04-15 00:00 14.42 99000 257000 (1997) 35200 (2003) 85900 38700 40900 47800 49600 70600 112000 125000 149000 180000
2026-04-14 23:00 14.36 98400 257000 (1997) 35200 (2003) 85900 38700 40900 47800 49600 70600 112000 125000 149000 180000
2026-04-14 22:00 14.39 98700 277000 (1997) 36000 (2003) 86900 38100 41300 45300 50100 66600 125000 129000 158000 185000
2026-04-14 21:00 14.38 98600 277000 (1997) 36000 (2003) 86900 38100 41300 45300 50100 66600 125000 129000 158000 185000
2026-04-14 20:00 14.34 98200 277000 (1997) 36000 (2003) 86900 38100 41300 45300 50100 66600 125000 129000 158000 185000
2026-04-14 19:00 14.29 97700 277000 (1997) 36000 (2003) 86900 38100 41300 45300 50100 66600 125000 129000 158000 185000
2026-04-14 18:00 14.17 96500 277000 (1997) 36000 (2003) 86900 38100 41300 45300 50100 66600 125000 129000 158000 185000
2026-04-14 17:00 14.15 96300 277000 (1997) 36000 (2003) 86900 38100 41300 45300 50100 66600 125000 129000 158000 185000
2026-04-14 16:00 14.09 93200 277000 (1997) 36000 (2003) 86900 38100 41300 45300 50100 66600 125000 129000 158000 185000
2026-04-14 15:00 13.96 92000 277000 (1997) 36000 (2003) 86900 38100 41300 45300 50100 66600 125000 129000 158000 185000
2026-04-14 14:00 13.87 91100 277000 (1997) 36000 (2003) 86900 38100 41300 45300 50100 66600 125000 129000 158000 185000
2026-04-14 13:00 13.75 89900 277000 (1997) 36000 (2003) 86900 38100 41300 45300 50100 66600 125000 129000 158000 185000
2026-04-14 12:00 13.62 88700 277000 (1997) 36000 (2003) 86900 38100 41300 45300 50100 66600 125000 129000 158000 185000
2026-04-14 10:00 13.46 87200 277000 (1997) 36000 (2003) 86900 38100 41300 45300 50100 66600 125000 129000 158000 185000
2026-04-14 09:00 13.32 85900 277000 (1997) 36000 (2003) 86900 38100 41300 45300 50100 66600 125000 129000 158000 185000
2026-04-14 08:00 13.17 84500 277000 (1997) 36000 (2003) 86900 38100 41300 45300 50100 66600 125000 129000 158000 185000
2026-04-14 07:00 13.03 83200 277000 (1997) 36000 (2003) 86900 38100 41300 45300 50100 66600 125000 129000 158000 185000
2026-04-14 06:00 12.88 81900 277000 (1997) 36000 (2003) 86900 38100 41300 45300 50100 66600 125000 129000 158000 185000
2026-04-14 05:00 12.72 80500 277000 (1997) 36000 (2003) 86900 38100 41300 45300 50100 66600 125000 129000 158000 185000
2026-04-14 04:00 12.57 79200 277000 (1997) 36000 (2003) 86900 38100 41300 45300 50100 66600 125000 129000 158000 185000
2026-04-14 03:00 12.41 77900 277000 (1997) 36000 (2003) 86900 38100 41300 45300 50100 66600 125000 129000 158000 185000
2026-04-14 02:00 12.27 76800 277000 (1997) 36000 (2003) 86900 38100 41300 45300 50100 66600 125000 129000 158000 185000
2026-04-14 01:00 12.10 75400 277000 (1997) 36000 (2003) 86900 38100 41300 45300 50100 66600 125000 129000 158000 185000
2026-04-14 00:00 11.93 74000 277000 (1997) 36000 (2003) 86900 38100 41300 45300 50100 66600 125000 129000 158000 185000
2026-04-13 23:00 11.75 72600 277000 (1997) 36000 (2003) 86900 38100 41300 45300 50100 66600 125000 129000 158000 185000
2026-04-13 22:00 11.58 71300 274000 (1997) 35000 (1964) 87000 38100 39900 44000 47800 62500 121000 137000 169000 190000
2026-04-13 21:00 11.42 70100 274000 (1997) 35000 (1964) 87000 38100 39900 44000 47800 62500 121000 137000 169000 190000
2026-04-13 20:00 11.25 68800 274000 (1997) 35000 (1964) 87000 38100 39900 44000 47800 62500 121000 137000 169000 190000
2026-04-13 19:00 11.13 67900 274000 (1997) 35000 (1964) 87000 38100 39900 44000 47800 62500 121000 137000 169000 190000
2026-04-13 18:00 10.95 66500 274000 (1997) 35000 (1964) 87000 38100 39900 44000 47800 62500 121000 137000 169000 190000
2026-04-13 17:00 10.79 65400 274000 (1997) 35000 (1964) 87000 38100 39900 44000 47800 62500 121000 137000 169000 190000
2026-04-13 16:00 10.66 64500 274000 (1997) 35000 (1964) 87000 38100 39900 44000 47800 62500 121000 137000 169000 190000
2026-04-13 15:00 10.54 63600 274000 (1997) 35000 (1964) 87000 38100 39900 44000 47800 62500 121000 137000 169000 190000
2026-04-13 14:00 10.45 63000 274000 (1997) 35000 (1964) 87000 38100 39900 44000 47800 62500 121000 137000 169000 190000
2026-04-13 13:00 10.35 62300 274000 (1997) 35000 (1964) 87000 38100 39900 44000 47800 62500 121000 137000 169000 190000
2026-04-13 12:00 10.26 61600 274000 (1997) 35000 (1964) 87000 38100 39900 44000 47800 62500 121000 137000 169000 190000
2026-04-13 11:00 10.21 61300 274000 (1997) 35000 (1964) 87000 38100 39900 44000 47800 62500 121000 137000 169000 190000
2026-04-13 10:00 10.13 60800 274000 (1997) 35000 (1964) 87000 38100 39900 44000 47800 62500 121000 137000 169000 190000
2026-04-13 09:00 10.12 60700 274000 (1997) 35000 (1964) 87000 38100 39900 44000 47800 62500 121000 137000 169000 190000
2026-04-13 08:00 10.08 60400 274000 (1997) 35000 (1964) 87000 38100 39900 44000 47800 62500 121000 137000 169000 190000
2026-04-13 07:00 10.04 60100 274000 (1997) 35000 (1964) 87000 38100 39900 44000 47800 62500 121000 137000 169000 190000
2026-04-13 06:00 10.01 59900 274000 (1997) 35000 (1964) 87000 38100 39900 44000 47800 62500 121000 137000 169000 190000
2026-04-13 05:00 1 59900 274000 (1997) 35000 (1964) 87000 38100 39900 44000 47800 62500 121000 137000 169000 190000
2026-04-13 04:00 9.99 59800 274000 (1997) 35000 (1964) 87000 38100 39900 44000 47800 62500 121000 137000 169000 190000
2026-04-13 03:00 1 59900 274000 (1997) 35000 (1964) 87000 38100 39900 44000 47800 62500 121000 137000 169000 190000
2026-04-13 02:00 1 59900 274000 (1997) 35000 (1964) 87000 38100 39900 44000 47800 62500 121000 137000 169000 190000
2026-04-13 01:00 9.99 59800 274000 (1997) 35000 (1964) 87000 38100 39900 44000 47800 62500 121000 137000 169000 190000
2026-04-13 00:00 1 59900 274000 (1997) 35000 (1964) 87000 38100 39900 44000 47800 62500 121000 137000 169000 190000
2026-04-12 23:00 10.02 60000 274000 (1997) 35000 (1964) 87000 38100 39900 44000 47800 62500 121000 137000 169000 190000
2026-04-12 22:00 10.04 60100 234000 (1997) 36300 (2003) 88200 37800 39900 44400 47700 62700 121000 141000 176000 190000
2026-04-12 21:00 10.05 60200 234000 (1997) 36300 (2003) 88200 37800 39900 44400 47700 62700 121000 141000 176000 190000
2026-04-12 20:00 10.06 60300 234000 (1997) 36300 (2003) 88200 37800 39900 44400 47700 62700 121000 141000 176000 190000
2026-04-12 19:00 10.05 60200 234000 (1997) 36300 (2003) 88200 37800 39900 44400 47700 62700 121000 141000 176000 190000
2026-04-12 18:00 10.08 60400 234000 (1997) 36300 (2003) 88200 37800 39900 44400 47700 62700 121000 141000 176000 190000
2026-04-12 17:00 10.07 60400 234000 (1997) 36300 (2003) 88200 37800 39900 44400 47700 62700 121000 141000 176000 190000
2026-04-12 16:00 10.04 60100 234000 (1997) 36300 (2003) 88200 37800 39900 44400 47700 62700 121000 141000 176000 190000
2026-04-12 15:00 10.02 60000 234000 (1997) 36300 (2003) 88200 37800 39900 44400 47700 62700 121000 141000 176000 190000
2026-04-12 14:00 10.05 60200 234000 (1997) 36300 (2003) 88200 37800 39900 44400 47700 62700 121000 141000 176000 190000
2026-04-12 13:00 9.90 59200 234000 (1997) 36300 (2003) 88200 37800 39900 44400 47700 62700 121000 141000 176000 190000
2026-04-12 12:00 10.01 59900 234000 (1997) 36300 (2003) 88200 37800 39900 44400 47700 62700 121000 141000 176000 190000
2026-04-12 11:00 1 59900 234000 (1997) 36300 (2003) 88200 37800 39900 44400 47700 62700 121000 141000 176000 190000
2026-04-12 10:00 9.97 59700 234000 (1997) 36300 (2003) 88200 37800 39900 44400 47700 62700 121000 141000 176000 190000
2026-04-12 09:00 9.94 59500 234000 (1997) 36300 (2003) 88200 37800 39900 44400 47700 62700 121000 141000 176000 190000
2026-04-12 08:00 9.88 59100 234000 (1997) 36300 (2003) 88200 37800 39900 44400 47700 62700 121000 141000 176000 190000
2026-04-12 07:00 9.85 58900 234000 (1997) 36300 (2003) 88200 37800 39900 44400 47700 62700 121000 141000 176000 190000
2026-04-12 06:00 9.82 58700 234000 (1997) 36300 (2003) 88200 37800 39900 44400 47700 62700 121000 141000 176000 190000
2026-04-12 05:00 9.77 58300 234000 (1997) 36300 (2003) 88200 37800 39900 44400 47700 62700 121000 141000 176000 190000
2026-04-12 04:00 9.71 57900 234000 (1997) 36300 (2003) 88200 37800 39900 44400 47700 62700 121000 141000 176000 190000
2026-04-12 03:00 9.65 57600 234000 (1997) 36300 (2003) 88200 37800 39900 44400 47700 62700 121000 141000 176000 190000
2026-04-12 02:00 9.61 57300 234000 (1997) 36300 (2003) 88200 37800 39900 44400 47700 62700 121000 141000 176000 190000
2026-04-12 01:00 9.55 56900 234000 (1997) 36300 (2003) 88200 37800 39900 44400 47700 62700 121000 141000 176000 190000
2026-04-12 00:00 9.50 56600 234000 (1997) 36300 (2003) 88200 37800 39900 44400 47700 62700 121000 141000 176000 190000
2026-04-11 23:00 9.43 56100 234000 (1997) 36300 (2003) 88200 37800 39900 44400 47700 62700 121000 141000 176000 190000
2026-04-11 22:00 9.37 55700 225000 (1960) 35500 (2003) 85800 38000 40500 43700 45200 62300 124000 132000 158000 187000
2026-04-11 21:00 9.30 55300 225000 (1960) 35500 (2003) 85800 38000 40500 43700 45200 62300 124000 132000 158000 187000
2026-04-11 20:00 9.22 54800 225000 (1960) 35500 (2003) 85800 38000 40500 43700 45200 62300 124000 132000 158000 187000
2026-04-11 19:00 9.16 54400 225000 (1960) 35500 (2003) 85800 38000 40500 43700 45200 62300 124000 132000 158000 187000
2026-04-11 18:00 9.10 54000 225000 (1960) 35500 (2003) 85800 38000 40500 43700 45200 62300 124000 132000 158000 187000
2026-04-11 17:00 9.06 53800 225000 (1960) 35500 (2003) 85800 38000 40500 43700 45200 62300 124000 132000 158000 187000
2026-04-11 16:00 9.02 53600 225000 (1960) 35500 (2003) 85800 38000 40500 43700 45200 62300 124000 132000 158000 187000
2026-04-11 15:00 8.92 53000 225000 (1960) 35500 (2003) 85800 38000 40500 43700 45200 62300 124000 132000 158000 187000
2026-04-11 14:00 8.91 52900 225000 (1960) 35500 (2003) 85800 38000 40500 43700 45200 62300 124000 132000 158000 187000
2026-04-11 13:00 8.86 52600 225000 (1960) 35500 (2003) 85800 38000 40500 43700 45200 62300 124000 132000 158000 187000
2026-04-11 12:00 8.83 52400 225000 (1960) 35500 (2003) 85800 38000 40500 43700 45200 62300 124000 132000 158000 187000
2026-04-11 11:00 8.77 52100 225000 (1960) 35500 (2003) 85800 38000 40500 43700 45200 62300 124000 132000 158000 187000
2026-04-11 10:00 8.72 51800 225000 (1960) 35500 (2003) 85800 38000 40500 43700 45200 62300 124000 132000 158000 187000
2026-04-11 09:00 8.66 51400 225000 (1960) 35500 (2003) 85800 38000 40500 43700 45200 62300 124000 132000 158000 187000
2026-04-11 08:00 8.63 51200 225000 (1960) 35500 (2003) 85800 38000 40500 43700 45200 62300 124000 132000 158000 187000
2026-04-11 07:00 8.63 51200 225000 (1960) 35500 (2003) 85800 38000 40500 43700 45200 62300 124000 132000 158000 187000
2026-04-11 06:00 8.57 50900 225000 (1960) 35500 (2003) 85800 38000 40500 43700 45200 62300 124000 132000 158000 187000
2026-04-11 05:00 8.52 50600 225000 (1960) 35500 (2003) 85800 38000 40500 43700 45200 62300 124000 132000 158000 187000
2026-04-11 04:00 8.50 50500 225000 (1960) 35500 (2003) 85800 38000 40500 43700 45200 62300 124000 132000 158000 187000
2026-04-11 03:00 8.49 50400 225000 (1960) 35500 (2003) 85800 38000 40500 43700 45200 62300 124000 132000 158000 187000
2026-04-11 02:00 8.51 50500 225000 (1960) 35500 (2003) 85800 38000 40500 43700 45200 62300 124000 132000 158000 187000
2026-04-11 01:00 8.48 50400 225000 (1960) 35500 (2003) 85800 38000 40500 43700 45200 62300 124000 132000 158000 187000
2026-04-11 00:00 8.50 50500 225000 (1960) 35500 (2003) 85800 38000 40500 43700 45200 62300 124000 132000 158000 187000
2026-04-10 23:00 8.48 50400 225000 (1960) 35500 (2003) 85800 38000 40500 43700 45200 62300 124000 132000 158000 187000
2026-04-10 22:00 8.44 50100 241000 (1983) 34900 (2003) 82200 38100 40200 44300 45500 61400 103000 122000 157000 187000
2026-04-10 21:00 8.40 49900 241000 (1983) 34900 (2003) 82200 38100 40200 44300 45500 61400 103000 122000 157000 187000
2026-04-10 20:00 8.43 50100 241000 (1983) 34900 (2003) 82200 38100 40200 44300 45500 61400 103000 122000 157000 187000
2026-04-10 19:00 8.44 50100 241000 (1983) 34900 (2003) 82200 38100 40200 44300 45500 61400 103000 122000 157000 187000
2026-04-10 18:00 8.41 50000 241000 (1983) 34900 (2003) 82200 38100 40200 44300 45500 61400 103000 122000 157000 187000
2026-04-10 17:00 8.45 50200 241000 (1983) 34900 (2003) 82200 38100 40200 44300 45500 61400 103000 122000 157000 187000
2026-04-10 16:00 8.42 50000 241000 (1983) 34900 (2003) 82200 38100 40200 44300 45500 61400 103000 122000 157000 187000
2026-04-10 15:00 8.44 50100 241000 (1983) 34900 (2003) 82200 38100 40200 44300 45500 61400 103000 122000 157000 187000
2026-04-10 14:00 8.42 50000 241000 (1983) 34900 (2003) 82200 38100 40200 44300 45500 61400 103000 122000 157000 187000
2026-04-10 13:00 8.44 50100 241000 (1983) 34900 (2003) 82200 38100 40200 44300 45500 61400 103000 122000 157000 187000
2026-04-10 12:00 8.46 50200 241000 (1983) 34900 (2003) 82200 38100 40200 44300 45500 61400 103000 122000 157000 187000
2026-04-10 11:00 8.44 50100 241000 (1983) 34900 (2003) 82200 38100 40200 44300 45500 61400 103000 122000 157000 187000
2026-04-10 10:00 8.42 50000 241000 (1983) 34900 (2003) 82200 38100 40200 44300 45500 61400 103000 122000 157000 187000
2026-04-10 09:00 8.46 50200 241000 (1983) 34900 (2003) 82200 38100 40200 44300 45500 61400 103000 122000 157000 187000
2026-04-10 08:00 8.42 50000 241000 (1983) 34900 (2003) 82200 38100 40200 44300 45500 61400 103000 122000 157000 187000
2026-04-10 07:00 8.48 50400 241000 (1983) 34900 (2003) 82200 38100 40200 44300 45500 61400 103000 122000 157000 187000
2026-04-10 06:00 8.48 50400 241000 (1983) 34900 (2003) 82200 38100 40200 44300 45500 61400 103000 122000 157000 187000
2026-04-10 05:00 8.45 50200 241000 (1983) 34900 (2003) 82200 38100 40200 44300 45500 61400 103000 122000 157000 187000
2026-04-10 04:00 8.46 50200 241000 (1983) 34900 (2003) 82200 38100 40200 44300 45500 61400 103000 122000 157000 187000
2026-04-10 03:00 8.46 50200 241000 (1983) 34900 (2003) 82200 38100 40200 44300 45500 61400 103000 122000 157000 187000
2026-04-10 02:00 8.46 50200 241000 (1983) 34900 (2003) 82200 38100 40200 44300 45500 61400 103000 122000 157000 187000
2026-04-10 01:00 8.46 50200 241000 (1983) 34900 (2003) 82200 38100 40200 44300 45500 61400 103000 122000 157000 187000
2026-04-10 00:00 8.46 50200 241000 (1983) 34900 (2003) 82200 38100 40200 44300 45500 61400 103000 122000 157000 187000
2026-04-09 23:00 8.46 50200 241000 (1983) 34900 (2003) 82200 38100 40200 44300 45500 61400 103000 122000 157000 187000

A total of 730 rows are displayed for years 1958 through 2024.